Observation data for Stamford on 05/25/2019      Previous  Date  Next       Current Mesonet Observations  Soil Data  Daily Summary Page  Observations in Plain Language
KST2 250500Z 11010KT 24/20 A2995 RMK A01 T02440200  RH  076%=      5-min Rain = 0
KST2 250501Z 10009KT 25/20 A2995 RMK A01 T02450200  RH  076%=      5-min Rain = 0
KST2 250502Z 10009KT 24/20 A2995 RMK A01 T02440200  RH  076%=      5-min Rain = 0
KST2 250503Z 11009KT 24/20 A2995 RMK A01 T02440200  RH  076%=      5-min Rain = 0
KST2 250504Z 10009KT 24/20 A2995 RMK A01 T02440200  RH  076%=      5-min Rain = 0
KST2 250505Z 11008KT 24/20 A2995 RMK A01 T02440200  RH  076%=      5-min Rain = 0
KST2 250506Z 11010KT 24/20 A2996 RMK A01 T02440200  RH  076%=      5-min Rain = 0
KST2 250507Z 10009KT 24/20 A2996 RMK A01 T02440200  RH  076%=      5-min Rain = 0
KST2 250508Z 10008KT 24/20 A2996 RMK A01 T02440201  RH  077%=      5-min Rain = 0
KST2 250509Z 10009KT 24/20 A2996 RMK A01 T02430200  RH  077%=      5-min Rain = 0
KST2 250510Z 10008KT 24/20 A2996 RMK A01 T02430201  RH  077%=      5-min Rain = 0
KST2 250511Z 10008KT 24/20 A2996 RMK A01 T02430201  RH  077%=      5-min Rain = 0
KST2 250512Z 10008KT 24/20 A2996 RMK A01 T02430201  RH  077%=      5-min Rain = 0
KST2 250513Z 10008KT 24/20 A2996 RMK A01 T02430201  RH  077%=      5-min Rain = 0
KST2 250514Z 10008KT 24/20 A2996 RMK A01 T02420201  RH  078%=      5-min Rain = 0
KST2 250515Z 10007KT 24/20 A2996 RMK A01 T02420201  RH  078%=      5-min Rain = 0
KST2 250516Z 10008KT 24/20 A2996 RMK A01 T02420201  RH  078%=      5-min Rain = 0
KST2 250517Z 10008KT 24/20 A2996 RMK A01 T02420201  RH  078%=      5-min Rain = 0
KST2 250518Z 10008KT 24/20 A2996 RMK A01 T02420201  RH  078%=      5-min Rain = 0
KST2 250519Z 09008KT 24/20 A2996 RMK A01 T02420201  RH  078%=      5-min Rain = 0
KST2 250520Z 09007KT 24/20 A2996 RMK A01 T02420201  RH  078%=      5-min Rain = 0
KST2 250521Z 10007KT 24/20 A2996 RMK A01 T02420201  RH  078%=      5-min Rain = 0
KST2 250522Z 10008KT 24/20 A2996 RMK A01 T02420200  RH  078%=      5-min Rain = 0
KST2 250523Z 10007KT 24/20 A2996 RMK A01 T02420200  RH  078%=      5-min Rain = 0
KST2 250524Z 09007KT 24/20 A2996 RMK A01 T02410200  RH  078%=      5-min Rain = 0
KST2 250525Z 09007KT 24/20 A2996 RMK A01 T02410201  RH  078%=      5-min Rain = 0
KST2 250526Z 09007KT 24/20 A2996 RMK A01 T02410201  RH  078%=      5-min Rain = 0
KST2 250527Z 10007KT 24/20 A2997 RMK A01 T02410201  RH  078%=      5-min Rain = 0
KST2 250528Z 10006KT 24/20 A2997 RMK A01 T02410200  RH  078%=      5-min Rain = 0
KST2 250529Z 10006KT 24/20 A2997 RMK A01 T02410201  RH  078%=      5-min Rain = 0
KST2 250530Z 10006KT 24/20 A2997 RMK A01 T02410200  RH  078%=      5-min Rain = 0
KST2 250531Z 10007KT 24/20 A2997 RMK A01 T02410200  RH  078%=      5-min Rain = 0
KST2 250532Z 10006KT 24/20 A2997 RMK A01 T02410200  RH  078%=      5-min Rain = 0
KST2 250533Z 10007KT 24/20 A2997 RMK A01 T02410200  RH  078%=      5-min Rain = 0
KST2 250534Z 10006KT 24/20 A2997 RMK A01 T02420200  RH  078%=      5-min Rain = 0
KST2 250535Z 10006KT 24/20 A2997 RMK A01 T02410201  RH  078%=      5-min Rain = 0
KST2 250536Z 10007KT 24/20 A2997 RMK A01 T02410201  RH  078%=      5-min Rain = 0
KST2 250537Z 10006KT 24/20 A2997 RMK A01 T02410201  RH  079%=      5-min Rain = 0
KST2 250538Z 09006KT 24/20 A2997 RMK A01 T02410202  RH  079%=      5-min Rain = 0
KST2 250539Z 09007KT 24/20 A2997 RMK A01 T02400201  RH  079%=      5-min Rain = 0
KST2 250540Z 09006KT 24/20 A2997 RMK A01 T02400201  RH  079%=      5-min Rain = 0
KST2 250541Z 09006KT 24/20 A2997 RMK A01 T02400202  RH  079%=      5-min Rain = 0
KST2 250542Z 09006KT 24/20 A2997 RMK A01 T02390201  RH  079%=      5-min Rain = 0
KST2 250543Z 09006KT 24/20 A2997 RMK A01 T02380202  RH  080%=      5-min Rain = 0
KST2 250544Z 09007KT 24/20 A2997 RMK A01 T02380202  RH  080%=      5-min Rain = 0
KST2 250545Z 09007KT 24/20 A2997 RMK A01 T02380202  RH  080%=      5-min Rain = 0
KST2 250546Z 09007KT 24/20 A2997 RMK A01 T02370202  RH  081%=      5-min Rain = 0
KST2 250547Z 09007KT 24/20 A2997 RMK A01 T02370202  RH  081%=      5-min Rain = 0
KST2 250548Z 09008KT 24/20 A2997 RMK A01 T02360202  RH  081%=      5-min Rain = 0
KST2 250549Z 09007KT 24/20 A2997 RMK A01 T02360202  RH  081%=      5-min Rain = 0
KST2 250550Z 08006KT 24/20 A2997 RMK A01 T02360202  RH  081%=      5-min Rain = 0
KST2 250551Z 08006KT 24/20 A2997 RMK A01 T02360203  RH  082%=      5-min Rain = 0
KST2 250552Z 09006KT 24/20 A2997 RMK A01 T02350202  RH  082%=      5-min Rain = 0
KST2 250553Z 09007KT 24/20 A2997 RMK A01 T02350202  RH  082%=      5-min Rain = 0
KST2 250554Z 09006KT 24/20 A2998 RMK A01 T02350202  RH  082%=      5-min Rain = 0
KST2 250555Z 09007KT 24/20 A2998 RMK A01 T02350202  RH  082%=      5-min Rain = 0
KST2 250556Z 09007KT 24/20 A2998 RMK A01 T02350202  RH  082%=      5-min Rain = 0
KST2 250557Z 09009KT 24/20 A2998 RMK A01 T02360201  RH  081%=      5-min Rain = 0
KST2 250558Z 08008KT 24/20 A2998 RMK A01 T02360201  RH  081%=      5-min Rain = 0
KST2 250559Z 08007KT 24/20 A2998 RMK A01 T02360202  RH  081%=      5-min Rain = 0
KST2 250600Z 09008KT 24/20 A2998 RMK A01 T02360202  RH  081%=      5-min Rain = 0
KST2 250601Z 09008KT 24/20 A2998 RMK A01 T02350202  RH  081%=      5-min Rain = 0
KST2 250602Z 09008KT 24/20 A2998 RMK A01 T02350202  RH  082%=      5-min Rain = 0
KST2 250603Z 09008KT 24/20 A2998 RMK A01 T02350202  RH  082%=      5-min Rain = 0
KST2 250604Z 08007KT 24/20 A2998 RMK A01 T02350202  RH  082%=      5-min Rain = 0
KST2 250605Z 09007KT 23/20 A2998 RMK A01 T02340202  RH  082%=      5-min Rain = 0
KST2 250606Z 09007KT 23/20 A2998 RMK A01 T02340202  RH  082%=      5-min Rain = 0
KST2 250607Z 09007KT 23/20 A2998 RMK A01 T02340202  RH  082%=      5-min Rain = 0
KST2 250608Z 09007KT 23/20 A2998 RMK A01 T02340202  RH  082%=      5-min Rain = 0
KST2 250609Z 09007KT 23/20 A2998 RMK A01 T02340202  RH  082%=      5-min Rain = 0
KST2 250610Z 09008KT 23/20 A2998 RMK A01 T02340201  RH  082%=      5-min Rain = 0
KST2 250611Z 09007KT 23/20 A2998 RMK A01 T02340202  RH  082%=      5-min Rain = 0
KST2 250612Z 09006KT 23/20 A2998 RMK A01 T02340202  RH  082%=      5-min Rain = 0
KST2 250613Z 09006KT 23/20 A2998 RMK A01 T02340202  RH  082%=      5-min Rain = 0
KST2 250614Z 09006KT 23/20 A2998 RMK A01 T02340202  RH  082%=      5-min Rain = 0
KST2 250615Z 09006KT 23/20 A2998 RMK A01 T02340202  RH  082%=      5-min Rain = 0
KST2 250616Z 09006KT 23/20 A2998 RMK A01 T02340202  RH  082%=      5-min Rain = 0
KST2 250617Z 09006KT 23/20 A2998 RMK A01 T02340202  RH  082%=      5-min Rain = 0
KST2 250618Z 09007KT 23/20 A2998 RMK A01 T02340202  RH  082%=      5-min Rain = 0
KST2 250619Z 09007KT 23/20 A2998 RMK A01 T02330202  RH  083%=      5-min Rain = 0
KST2 250620Z 09007KT 23/20 A2998 RMK A01 T02330202  RH  083%=      5-min Rain = 0
KST2 250621Z 09007KT 23/20 A2998 RMK A01 T02340202  RH  082%=      5-min Rain = 0
KST2 250622Z 09007KT 23/20 A2998 RMK A01 T02330202  RH  083%=      5-min Rain = 0
KST2 250623Z 09007KT 23/20 A2998 RMK A01 T02330203  RH  083%=      5-min Rain = 0
KST2 250624Z 10007KT 23/20 A2998 RMK A01 T02330202  RH  083%=      5-min Rain = 0
KST2 250625Z 10007KT 23/20 A2998 RMK A01 T02330203  RH  083%=      5-min Rain = 0
KST2 250626Z 10007KT 23/20 A2998 RMK A01 T02330202  RH  083%=      5-min Rain = 0
KST2 250627Z 10007KT 23/20 A2998 RMK A01 T02320202  RH  083%=      5-min Rain = 0
KST2 250628Z 10006KT 23/20 A2998 RMK A01 T02320202  RH  083%=      5-min Rain = 0
KST2 250629Z 10006KT 23/20 A2998 RMK A01 T02330203  RH  083%=      5-min Rain = 0
KST2 250630Z 11007KT 23/20 A2998 RMK A01 T02320202  RH  083%=      5-min Rain = 0
KST2 250631Z 10007KT 23/20 A2998 RMK A01 T02330202  RH  083%=      5-min Rain = 0
KST2 250632Z 10006KT 23/20 A2998 RMK A01 T02330202  RH  083%=      5-min Rain = 0
KST2 250633Z 10006KT 23/20 A2998 RMK A01 T02330202  RH  083%=      5-min Rain = 0
KST2 250634Z 11006KT 23/20 A2998 RMK A01 T02330202  RH  083%=      5-min Rain = 0
KST2 250635Z 10006KT 23/20 A2998 RMK A01 T02330202  RH  083%=      5-min Rain = 0
KST2 250636Z 10006KT 23/20 A2998 RMK A01 T02330202  RH  083%=      5-min Rain = 0
KST2 250637Z 11005KT 23/20 A2998 RMK A01 T02330203  RH  083%=      5-min Rain = 0
KST2 250638Z 11006KT 23/20 A2998 RMK A01 T02330202  RH  083%=      5-min Rain = 0
KST2 250639Z 10006KT 23/20 A2998 RMK A01 T02330202  RH  083%=      5-min Rain = 0
KST2 250640Z 11005KT 23/20 A2998 RMK A01 T02320202  RH  083%=      5-min Rain = 0
KST2 250641Z 10006KT 23/20 A2998 RMK A01 T02330203  RH  083%=      5-min Rain = 0
KST2 250642Z 11006KT 23/20 A2998 RMK A01 T02330203  RH  083%=      5-min Rain = 0
KST2 250643Z 10006KT 23/20 A2998 RMK A01 T02320202  RH  083%=      5-min Rain = 0
KST2 250644Z 10005KT 23/20 A2998 RMK A01 T02320202  RH  083%=      5-min Rain = 0
KST2 250645Z 10005KT 23/20 A2998 RMK A01 T02320202  RH  083%=      5-min Rain = 0
KST2 250646Z 10006KT 23/20 A2997 RMK A01 T02320203  RH  084%=      5-min Rain = 0
KST2 250647Z 10006KT 23/20 A2997 RMK A01 T02310202  RH  084%=      5-min Rain = 0
KST2 250648Z 10006KT 23/20 A2997 RMK A01 T02310202  RH  084%=      5-min Rain = 0
KST2 250649Z 10007KT 23/20 A2997 RMK A01 T02310202  RH  084%=      5-min Rain = 0
KST2 250650Z 10006KT 23/20 A2997 RMK A01 T02310202  RH  084%=      5-min Rain = 0
KST2 250651Z 10007KT 23/20 A2997 RMK A01 T02310203  RH  084%=      5-min Rain = 0
KST2 250652Z 10007KT 23/20 A2997 RMK A01 T02310202  RH  084%=      5-min Rain = 0
KST2 250653Z 10007KT 23/20 A2997 RMK A01 T02310202  RH  084%=      5-min Rain = 0
KST2 250654Z 10008KT 23/20 A2997 RMK A01 T02310202  RH  084%=      5-min Rain = 0
KST2 250655Z 11007KT 23/20 A2997 RMK A01 T02310202  RH  084%=      5-min Rain = 0
KST2 250656Z 11007KT 23/20 A2997 RMK A01 T02300202  RH  084%=      5-min Rain = 0
KST2 250657Z 10007KT 23/20 A2997 RMK A01 T02310202  RH  084%=      5-min Rain = 0
KST2 250658Z 10007KT 23/20 A2997 RMK A01 T02310202  RH  084%=      5-min Rain = 0
KST2 250659Z 10007KT 23/20 A2997 RMK A01 T02310202  RH  084%=      5-min Rain = 0
KST2 250700Z 10007KT 23/20 A2997 RMK A01 T02310202  RH  084%=      5-min Rain = 0
KST2 250701Z 10007KT 23/20 A2997 RMK A01 T02310202  RH  084%=      5-min Rain = 0
KST2 250702Z 10007KT 23/20 A2997 RMK A01 T02310201  RH  084%=      5-min Rain = 0
KST2 250703Z 10007KT 23/20 A2997 RMK A01 T02310201  RH  084%=      5-min Rain = 0
KST2 250704Z 11007KT 23/20 A2997 RMK A01 T02310201  RH  084%=      5-min Rain = 0
KST2 250705Z 11007KT 23/20 A2997 RMK A01 T02310201  RH  083%=      5-min Rain = 0
KST2 250706Z 11007KT 23/20 A2997 RMK A01 T02310201  RH  083%=      5-min Rain = 0
KST2 250707Z 11008KT 23/20 A2997 RMK A01 T02310201  RH  083%=      5-min Rain = 0
KST2 250708Z 11008KT 23/20 A2997 RMK A01 T02310201  RH  083%=      5-min Rain = 0
KST2 250709Z 11008KT 23/20 A2997 RMK A01 T02310201  RH  083%=      5-min Rain = 0
KST2 250710Z 11008KT 23/20 A2997 RMK A01 T02310201  RH  083%=      5-min Rain = 0
KST2 250711Z 11008KT 23/20 A2997 RMK A01 T02320201  RH  083%=      5-min Rain = 0
KST2 250712Z 11009KT 23/20 A2997 RMK A01 T02320201  RH  083%=      5-min Rain = 0
KST2 250713Z 11009KT 23/20 A2997 RMK A01 T02320200  RH  082%=      5-min Rain = 0
KST2 250714Z 12009KT 23/20 A2997 RMK A01 T02320200  RH  082%=      5-min Rain = 0
KST2 250715Z 12010KT 23/20 A2997 RMK A01 T02320200  RH  082%=      5-min Rain = 0
KST2 250716Z 12010KT 23/20 A2997 RMK A01 T02320200  RH  082%=      5-min Rain = 0
KST2 250717Z 12010KT 23/20 A2997 RMK A01 T02320200  RH  082%=      5-min Rain = 0
KST2 250718Z 12009KT 23/20 A2997 RMK A01 T02320200  RH  082%=      5-min Rain = 0
KST2 250719Z 12009KT 23/20 A2997 RMK A01 T02320200  RH  082%=      5-min Rain = 0
KST2 250720Z 12009KT 23/20 A2997 RMK A01 T02320200  RH  082%=      5-min Rain = 0
KST2 250721Z 12009KT 23/20 A2997 RMK A01 T02320200  RH  083%=      5-min Rain = 0
KST2 250722Z 12008KT 23/20 A2997 RMK A01 T02310201  RH  083%=      5-min Rain = 0
KST2 250723Z 12009KT 23/20 A2997 RMK A01 T02310201  RH  083%=      5-min Rain = 0
KST2 250724Z 12009KT 23/20 A2997 RMK A01 T02310201  RH  083%=      5-min Rain = 0
KST2 250725Z 12008KT 23/20 A2997 RMK A01 T02300200  RH  083%=      5-min Rain = 0
KST2 250726Z 12009KT 23/20 A2997 RMK A01 T02300201  RH  083%=      5-min Rain = 0
KST2 250727Z 12010KT 23/20 A2997 RMK A01 T02300200  RH  083%=      5-min Rain = 0
KST2 250728Z 12009KT 23/20 A2996 RMK A01 T02300200  RH  084%=      5-min Rain = 0
KST2 250729Z 13010KT 23/20 A2996 RMK A01 T02300201  RH  084%=      5-min Rain = 0
KST2 250730Z 13009KT 23/20 A2996 RMK A01 T02300201  RH  084%=      5-min Rain = 0
KST2 250731Z 13009KT 23/20 A2996 RMK A01 T02290201  RH  084%=      5-min Rain = 0
KST2 250732Z 13009KT 23/20 A2996 RMK A01 T02290201  RH  084%=      5-min Rain = 0
KST2 250733Z 13010KT 23/20 A2996 RMK A01 T02290200  RH  084%=      5-min Rain = 0
KST2 250734Z 13010KT 23/20 A2996 RMK A01 T02290201  RH  084%=      5-min Rain = 0
KST2 250735Z 13010KT 23/20 A2996 RMK A01 T02290201  RH  084%=      5-min Rain = 0
KST2 250736Z 13010KT 23/20 A2996 RMK A01 T02290200  RH  084%=      5-min Rain = 0
KST2 250737Z 13011KT 23/20 A2996 RMK A01 T02290200  RH  084%=      5-min Rain = 0
KST2 250738Z 14010KT 23/20 A2996 RMK A01 T02290200  RH  084%=      5-min Rain = 0
KST2 250739Z 14009KT 23/20 A2996 RMK A01 T02290200  RH  084%=      5-min Rain = 0
KST2 250740Z 14009KT 23/20 A2996 RMK A01 T02290200  RH  084%=      5-min Rain = 0
KST2 250741Z 14009KT 23/20 A2996 RMK A01 T02290200  RH  084%=      5-min Rain = 0
KST2 250742Z 14010KT 23/20 A2996 RMK A01 T02290199  RH  084%=      5-min Rain = 0
KST2 250743Z 14009KT 23/20 A2996 RMK A01 T02290200  RH  084%=      5-min Rain = 0
KST2 250744Z 14009KT 23/20 A2996 RMK A01 T02290200  RH  084%=      5-min Rain = 0
KST2 250745Z 14011KT 23/20 A2996 RMK A01 T02290200  RH  084%=      5-min Rain = 0
KST2 250746Z 14011KT 23/20 A2996 RMK A01 T02280199  RH  084%=      5-min Rain = 0
KST2 250747Z 13011KT 23/20 A2995 RMK A01 T02280199  RH  084%=      5-min Rain = 0
KST2 250748Z 14010KT 23/20 A2995 RMK A01 T02290200  RH  084%=      5-min Rain = 0
KST2 250749Z 14012KT 23/20 A2995 RMK A01 T02280199  RH  084%=      5-min Rain = 0
KST2 250750Z 14011KT 23/20 A2995 RMK A01 T02280199  RH  084%=      5-min Rain = 0
KST2 250751Z 14011KT 23/20 A2995 RMK A01 T02280199  RH  084%=      5-min Rain = 0
KST2 250752Z 14011KT 23/20 A2995 RMK A01 T02280199  RH  084%=      5-min Rain = 0
KST2 250753Z 14011KT 23/20 A2995 RMK A01 T02280199  RH  084%=      5-min Rain = 0
KST2 250754Z 14012KT 23/20 A2995 RMK A01 T02290199  RH  084%=      5-min Rain = 0
KST2 250755Z 14011KT 23/20 A2995 RMK A01 T02280199  RH  083%=      5-min Rain = 0
KST2 250756Z 14012KT 23/20 A2995 RMK A01 T02280198  RH  083%=      5-min Rain = 0
KST2 250757Z 14013KT 23/20 A2995 RMK A01 T02290198  RH  083%=      5-min Rain = 0
KST2 250758Z 15011KT 23/20 A2995 RMK A01 T02290198  RH  083%=      5-min Rain = 0
KST2 250759Z 15010KT 23/20 A2996 RMK A01 T02290198  RH  083%=      5-min Rain = 0
KST2 250800Z 14011KT 23/20 A2996 RMK A01 T02290198  RH  083%=      5-min Rain = 0
KST2 250801Z 15011KT 23/20 A2996 RMK A01 T02300199  RH  083%=      5-min Rain = 0
KST2 250802Z 15010KT 23/20 A2996 RMK A01 T02290198  RH  083%=      5-min Rain = 0
KST2 250803Z 15011KT 23/20 A2996 RMK A01 T02290198  RH  083%=      5-min Rain = 0
KST2 250804Z 14011KT 23/20 A2996 RMK A01 T02290198  RH  083%=      5-min Rain = 0
KST2 250805Z 14010KT 23/20 A2996 RMK A01 T02290198  RH  083%=      5-min Rain = 0
KST2 250806Z 14010KT 23/20 A2996 RMK A01 T02280198  RH  083%=      5-min Rain = 0
KST2 250807Z 14010KT 23/20 A2996 RMK A01 T02280198  RH  083%=      5-min Rain = 0
KST2 250808Z 14011KT 23/20 A2996 RMK A01 T02280198  RH  084%=      5-min Rain = 0
KST2 250809Z 14010KT 23/20 A2996 RMK A01 T02270198  RH  084%=      5-min Rain = 0
KST2 250810Z 14010KT 23/20 A2996 RMK A01 T02270198  RH  084%=      5-min Rain = 0
KST2 250811Z 14011KT 23/20 A2996 RMK A01 T02270198  RH  084%=      5-min Rain = 0
KST2 250812Z 14010KT 23/20 A2995 RMK A01 T02270198  RH  084%=      5-min Rain = 0
KST2 250813Z 14011KT 23/20 A2995 RMK A01 T02280198  RH  084%=      5-min Rain = 0
KST2 250814Z 14010KT 23/20 A2995 RMK A01 T02280198  RH  083%=      5-min Rain = 0
KST2 250815Z 14011KT 23/20 A2995 RMK A01 T02270198  RH  083%=      5-min Rain = 0
KST2 250816Z 14011KT 23/20 A2995 RMK A01 T02270198  RH  083%=      5-min Rain = 0
KST2 250817Z 14011KT 23/20 A2995 RMK A01 T02270197  RH  083%=      5-min Rain = 0
KST2 250818Z 14011KT 23/20 A2995 RMK A01 T02280198  RH  083%=      5-min Rain = 0
KST2 250819Z 14010KT 23/20 A2995 RMK A01 T02280198  RH  083%=      5-min Rain = 0
KST2 250820Z 14011KT 23/20 A2995 RMK A01 T02280198  RH  083%=      5-min Rain = 0
KST2 250821Z 14012KT 23/20 A2995 RMK A01 T02280198  RH  083%=      5-min Rain = 0
KST2 250822Z 14011KT 23/20 A2995 RMK A01 T02280198  RH  083%=      5-min Rain = 0
KST2 250823Z 14011KT 23/20 A2995 RMK A01 T02280198  RH  083%=      5-min Rain = 0
KST2 250824Z 14009KT 23/20 A2995 RMK A01 T02280198  RH  083%=      5-min Rain = 0
KST2 250825Z 14010KT 23/20 A2995 RMK A01 T02280198  RH  083%=      5-min Rain = 0
KST2 250826Z 14010KT 23/20 A2995 RMK A01 T02280198  RH  083%=      5-min Rain = 0
KST2 250827Z 14010KT 23/20 A2995 RMK A01 T02280198  RH  083%=      5-min Rain = 0
KST2 250828Z 14010KT 23/20 A2995 RMK A01 T02270198  RH  083%=      5-min Rain = 0
KST2 250829Z 14010KT 23/20 A2995 RMK A01 T02270198  RH  083%=      5-min Rain = 0
KST2 250830Z 14012KT 23/20 A2995 RMK A01 T02270198  RH  083%=      5-min Rain = 0
KST2 250831Z 14010KT 23/20 A2995 RMK A01 T02280198  RH  083%=      5-min Rain = 0
KST2 250832Z 14011KT 23/20 A2995 RMK A01 T02280198  RH  083%=      5-min Rain = 0
KST2 250833Z 15009KT 23/20 A2995 RMK A01 T02280198  RH  083%=      5-min Rain = 0
KST2 250834Z 14009KT 23/20 A2995 RMK A01 T02280198  RH  083%=      5-min Rain = 0
KST2 250835Z 14009KT 23/20 A2995 RMK A01 T02280198  RH  083%=      5-min Rain = 0
KST2 250836Z 14009KT 23/20 A2995 RMK A01 T02280198  RH  083%=      5-min Rain = 0
KST2 250837Z 14009KT 23/20 A2995 RMK A01 T02280198  RH  083%=      5-min Rain = 0
KST2 250838Z 15011KT 23/20 A2995 RMK A01 T02280198  RH  083%=      5-min Rain = 0
KST2 250839Z 15010KT 23/20 A2995 RMK A01 T02280198  RH  083%=      5-min Rain = 0
KST2 250840Z 15010KT 23/20 A2995 RMK A01 T02290198  RH  083%=      5-min Rain = 0
KST2 250841Z 15011KT 23/20 A2995 RMK A01 T02290198  RH  083%=      5-min Rain = 0
KST2 250842Z 15011KT 23/20 A2995 RMK A01 T02290198  RH  083%=      5-min Rain = 0
KST2 250843Z 15010KT 23/20 A2995 RMK A01 T02300198  RH  082%=      5-min Rain = 0
KST2 250844Z 15010KT 23/20 A2995 RMK A01 T02290198  RH  082%=      5-min Rain = 0
KST2 250845Z 15010KT 23/20 A2995 RMK A01 T02290197  RH  082%=      5-min Rain = 0
KST2 250846Z 15010KT 23/20 A2995 RMK A01 T02290198  RH  082%=      5-min Rain = 0
KST2 250847Z 15009KT 23/20 A2995 RMK A01 T02290197  RH  082%=      5-min Rain = 0
KST2 250848Z 15011KT 23/20 A2995 RMK A01 T02300198  RH  083%=      5-min Rain = 0
KST2 250849Z 15011KT 23/20 A2995 RMK A01 T02290198  RH  082%=      5-min Rain = 0
KST2 250850Z 15012KT 23/20 A2995 RMK A01 T02300198  RH  082%=      5-min Rain = 0
KST2 250851Z 15010KT 23/20 A2995 RMK A01 T02300197  RH  082%=      5-min Rain = 0
KST2 250852Z 15010KT 23/20 A2995 RMK A01 T02300197  RH  082%=      5-min Rain = 0
KST2 250853Z 15011KT 23/20 A2995 RMK A01 T02300198  RH  082%=      5-min Rain = 0
KST2 250854Z 15011KT 23/20 A2995 RMK A01 T02300198  RH  082%=      5-min Rain = 0
KST2 250855Z 15010KT 23/20 A2995 RMK A01 T02300197  RH  082%=      5-min Rain = 0
KST2 250856Z 15010KT 23/20 A2995 RMK A01 T02300197  RH  082%=      5-min Rain = 0
KST2 250857Z 15009KT 23/20 A2995 RMK A01 T02300197  RH  082%=      5-min Rain = 0
KST2 250858Z 15010KT 23/20 A2995 RMK A01 T02300198  RH  082%=      5-min Rain = 0
KST2 250859Z 15011KT 23/20 A2995 RMK A01 T02300198  RH  082%=      5-min Rain = 0
KST2 250900Z 14010KT 23/20 A2995 RMK A01 T02300197  RH  082%=      5-min Rain = 0
KST2 250901Z 15011KT 23/20 A2995 RMK A01 T02300197  RH  082%=      5-min Rain = 0
KST2 250902Z 15010KT 23/20 A2995 RMK A01 T02300197  RH  082%=      5-min Rain = 0
KST2 250903Z 14009KT 23/20 A2995 RMK A01 T02300197  RH  082%=      5-min Rain = 0
KST2 250904Z 14009KT 23/20 A2995 RMK A01 T02300198  RH  082%=      5-min Rain = 0
KST2 250905Z 14009KT 23/20 A2995 RMK A01 T02300198  RH  082%=      5-min Rain = 0
KST2 250906Z 14011KT 23/20 A2995 RMK A01 T02300198  RH  082%=      5-min Rain = 0
KST2 250907Z 14011KT 23/20 A2995 RMK A01 T02300198  RH  082%=      5-min Rain = 0
KST2 250908Z 14010KT 23/20 A2995 RMK A01 T02300197  RH  082%=      5-min Rain = 0
KST2 250909Z 14011KT 23/20 A2995 RMK A01 T02300198  RH  082%=      5-min Rain = 0
KST2 250910Z 14009KT 23/20 A2995 RMK A01 T02300198  RH  082%=      5-min Rain = 0
KST2 250911Z 14011KT 23/20 A2995 RMK A01 T02300198  RH  082%=      5-min Rain = 0
KST2 250912Z 13011KT 23/20 A2995 RMK A01 T02300198  RH  082%=      5-min Rain = 0
KST2 250913Z 13012KT 23/20 A2995 RMK A01 T02300198  RH  082%=      5-min Rain = 0
KST2 250914Z 13011KT 23/20 A2995 RMK A01 T02300198  RH  082%=      5-min Rain = 0
KST2 250915Z 13011KT 23/20 A2995 RMK A01 T02300197  RH  082%=      5-min Rain = 0
KST2 250916Z 13012KT 23/20 A2995 RMK A01 T02300198  RH  082%=      5-min Rain = 0
KST2 250917Z 13012KT 23/20 A2995 RMK A01 T02300197  RH  082%=      5-min Rain = 0
KST2 250918Z 13009KT 23/20 A2995 RMK A01 T02300197  RH  082%=      5-min Rain = 0
KST2 250919Z 13010KT 23/20 A2995 RMK A01 T02300198  RH  082%=      5-min Rain = 0
KST2 250920Z 13012KT 23/20 A2995 RMK A01 T02300198  RH  082%=      5-min Rain = 0
KST2 250921Z 14010KT 23/20 A2995 RMK A01 T02300198  RH  082%=      5-min Rain = 0
KST2 250922Z 13010KT 23/20 A2995 RMK A01 T02300198  RH  082%=      5-min Rain = 0
KST2 250923Z 13009KT 23/20 A2995 RMK A01 T02300198  RH  082%=      5-min Rain = 0
KST2 250924Z 14010KT 23/20 A2995 RMK A01 T02290198  RH  083%=      5-min Rain = 0
KST2 250925Z 14009KT 23/20 A2995 RMK A01 T02290198  RH  083%=      5-min Rain = 0
KST2 250926Z 14011KT 23/20 A2995 RMK A01 T02290198  RH  083%=      5-min Rain = 0
KST2 250927Z 14010KT 23/20 A2995 RMK A01 T02290198  RH  083%=      5-min Rain = 0
KST2 250928Z 14010KT 23/20 A2995 RMK A01 T02290198  RH  082%=      5-min Rain = 0
KST2 250929Z 15011KT 23/20 A2995 RMK A01 T02290198  RH  082%=      5-min Rain = 0
KST2 250930Z 14011KT 23/20 A2995 RMK A01 T02290198  RH  082%=      5-min Rain = 0
KST2 250931Z 14010KT 23/20 A2995 RMK A01 T02290198  RH  082%=      5-min Rain = 0
KST2 250932Z 14012KT 23/20 A2995 RMK A01 T02290198  RH  082%=      5-min Rain = 0
KST2 250933Z 15012KT 23/20 A2995 RMK A01 T02290197  RH  082%=      5-min Rain = 0
KST2 250934Z 14013KT 23/20 A2995 RMK A01 T02290197  RH  082%=      5-min Rain = 0
KST2 250935Z 14012KT 23/20 A2995 RMK A01 T02290197  RH  082%=      5-min Rain = 0
KST2 250936Z 14012KT 23/20 A2995 RMK A01 T02290197  RH  082%=      5-min Rain = 0
KST2 250937Z 15012KT 23/20 A2995 RMK A01 T02290198  RH  082%=      5-min Rain = 0
KST2 250938Z 14012KT 23/20 A2994 RMK A01 T02290197  RH  082%=      5-min Rain = 0
KST2 250939Z 15011KT 23/20 A2994 RMK A01 T02290197  RH  082%=      5-min Rain = 0
KST2 250940Z 14012KT 23/20 A2994 RMK A01 T02280197  RH  083%=      5-min Rain = 0
KST2 250941Z 15012KT 23/20 A2994 RMK A01 T02290197  RH  083%=      5-min Rain = 0
KST2 250942Z 14014KT 23/20 A2994 RMK A01 T02290197  RH  083%=      5-min Rain = 0
KST2 250943Z 14013KT 23/20 A2994 RMK A01 T02280197  RH  082%=      5-min Rain = 0
KST2 250944Z 14012KT 23/20 A2994 RMK A01 T02280197  RH  082%=      5-min Rain = 0
KST2 250945Z 14013KT 23/20 A2994 RMK A01 T02280197  RH  083%=      5-min Rain = 0
KST2 250946Z 15012KT 23/20 A2994 RMK A01 T02280197  RH  083%=      5-min Rain = 0
KST2 250947Z 14011KT 23/20 A2994 RMK A01 T02280197  RH  083%=      5-min Rain = 0
KST2 250948Z 14011KT 23/20 A2994 RMK A01 T02270197  RH  083%=      5-min Rain = 0
KST2 250949Z 15012KT 23/20 A2994 RMK A01 T02270197  RH  083%=      5-min Rain = 0
KST2 250950Z 14012KT 23/20 A2994 RMK A01 T02270197  RH  083%=      5-min Rain = 0
KST2 250951Z 14013KT 23/20 A2994 RMK A01 T02270197  RH  083%=      5-min Rain = 0
KST2 250952Z 14012KT 23/20 A2994 RMK A01 T02270197  RH  083%=      5-min Rain = 0
KST2 250953Z 14013KT 23/20 A2995 RMK A01 T02270197  RH  083%=      5-min Rain = 0
KST2 250954Z 14013KT 23/20 A2994 RMK A01 T02270196  RH  083%=      5-min Rain = 0
KST2 250955Z 15012KT 23/20 A2995 RMK A01 T02270197  RH  083%=      5-min Rain = 0
KST2 250956Z 15011KT 23/20 A2995 RMK A01 T02260196  RH  083%=      5-min Rain = 0
KST2 250957Z 15012KT 23/20 A2995 RMK A01 T02260197  RH  084%=      5-min Rain = 0
KST2 250958Z 15010KT 23/20 A2995 RMK A01 T02260197  RH  084%=      5-min Rain = 0
KST2 250959Z 15010KT 23/20 A2995 RMK A01 T02250197  RH  084%=      5-min Rain = 0
KST2 251000Z 15010KT 23/20 A2995 RMK A01 T02250197  RH  084%=      5-min Rain = 0
KST2 251001Z 15011KT 23/20 A2995 RMK A01 T02250197  RH  084%=      5-min Rain = 0
KST2 251002Z 14010KT 23/20 A2995 RMK A01 T02250197  RH  084%=      5-min Rain = 0
KST2 251003Z 14009KT 23/20 A2995 RMK A01 T02250197  RH  084%=      5-min Rain = 0
KST2 251004Z 15009KT 23/20 A2995 RMK A01 T02250197  RH  084%=      5-min Rain = 0
KST2 251005Z 15010KT 22/20 A2995 RMK A01 T02240196  RH  084%=      5-min Rain = 0
KST2 251006Z 15009KT 22/20 A2995 RMK A01 T02240196  RH  084%=      5-min Rain = 0
KST2 251007Z 15013KT 22/20 A2995 RMK A01 T02240196  RH  084%=      5-min Rain = 0
KST2 251008Z 15011KT 23/20 A2995 RMK A01 T02250196  RH  084%=      5-min Rain = 0
KST2 251009Z 15010KT 23/20 A2995 RMK A01 T02250196  RH  084%=      5-min Rain = 0
KST2 251010Z 15010KT 23/20 A2995 RMK A01 T02250196  RH  084%=      5-min Rain = 0
KST2 251011Z 15009KT 22/20 A2995 RMK A01 T02240196  RH  084%=      5-min Rain = 0
KST2 251012Z 15010KT 22/20 A2995 RMK A01 T02240196  RH  084%=      5-min Rain = 0
KST2 251013Z 15010KT 22/20 A2995 RMK A01 T02240196  RH  084%=      5-min Rain = 0
KST2 251014Z 15011KT 22/20 A2995 RMK A01 T02240196  RH  084%=      5-min Rain = 0
KST2 251015Z 15010KT 22/20 A2995 RMK A01 T02240195  RH  084%=      5-min Rain = 0
KST2 251016Z 15008KT 22/20 A2995 RMK A01 T02240195  RH  084%=      5-min Rain = 0
KST2 251017Z 15010KT 23/20 A2995 RMK A01 T02250196  RH  084%=      5-min Rain = 0
KST2 251018Z 15010KT 22/20 A2995 RMK A01 T02240196  RH  084%=      5-min Rain = 0
KST2 251019Z 15010KT 22/20 A2995 RMK A01 T02240196  RH  084%=      5-min Rain = 0
KST2 251020Z 15010KT 22/20 A2996 RMK A01 T02240196  RH  084%=      5-min Rain = 0
KST2 251021Z 15009KT 22/20 A2996 RMK A01 T02240195  RH  084%=      5-min Rain = 0
KST2 251022Z 15010KT 22/20 A2996 RMK A01 T02240195  RH  084%=      5-min Rain = 0
KST2 251023Z 14009KT 22/20 A2995 RMK A01 T02240195  RH  084%=      5-min Rain = 0
KST2 251024Z 15010KT 22/20 A2995 RMK A01 T02240195  RH  083%=      5-min Rain = 0
KST2 251025Z 15009KT 22/20 A2995 RMK A01 T02240195  RH  083%=      5-min Rain = 0
KST2 251026Z 15010KT 22/20 A2995 RMK A01 T02240195  RH  083%=      5-min Rain = 0
KST2 251027Z 15011KT 22/20 A2995 RMK A01 T02240195  RH  083%=      5-min Rain = 0
KST2 251028Z 15009KT 23/20 A2995 RMK A01 T02250195  RH  083%=      5-min Rain = 0
KST2 251029Z 14009KT 23/20 A2995 RMK A01 T02250195  RH  083%=      5-min Rain = 0
KST2 251030Z 15010KT 23/20 A2995 RMK A01 T02250195  RH  083%=      5-min Rain = 0
KST2 251031Z 15009KT 23/20 A2996 RMK A01 T02250195  RH  083%=      5-min Rain = 0
KST2 251032Z 15009KT 22/20 A2996 RMK A01 T02240195  RH  083%=      5-min Rain = 0
KST2 251033Z 15010KT 22/20 A2996 RMK A01 T02240195  RH  083%=      5-min Rain = 0
KST2 251034Z 15010KT 22/20 A2996 RMK A01 T02240195  RH  083%=      5-min Rain = 0
KST2 251035Z 15010KT 22/20 A2996 RMK A01 T02240195  RH  083%=      5-min Rain = 0
KST2 251036Z 15009KT 22/20 A2996 RMK A01 T02240195  RH  083%=      5-min Rain = 0
KST2 251037Z 15010KT 22/20 A2996 RMK A01 T02240195  RH  083%=      5-min Rain = 0
KST2 251038Z 15010KT 22/19 A2996 RMK A01 T02240194  RH  083%=      5-min Rain = 0
KST2 251039Z 15009KT 22/19 A2996 RMK A01 T02240194  RH  083%=      5-min Rain = 0
KST2 251040Z 15009KT 22/20 A2996 RMK A01 T02240195  RH  083%=      5-min Rain = 0
KST2 251041Z 15009KT 22/20 A2996 RMK A01 T02240195  RH  083%=      5-min Rain = 0
KST2 251042Z 15010KT 22/19 A2996 RMK A01 T02230194  RH  084%=      5-min Rain = 0
KST2 251043Z 15009KT 22/19 A2996 RMK A01 T02230194  RH  083%=      5-min Rain = 0
KST2 251044Z 15010KT 22/19 A2996 RMK A01 T02230194  RH  084%=      5-min Rain = 0
KST2 251045Z 15009KT 22/19 A2996 RMK A01 T02240194  RH  084%=      5-min Rain = 0
KST2 251046Z 15010KT 22/19 A2996 RMK A01 T02230194  RH  084%=      5-min Rain = 0
KST2 251047Z 15010KT 22/19 A2996 RMK A01 T02230194  RH  084%=      5-min Rain = 0
KST2 251048Z 15009KT 22/19 A2996 RMK A01 T02230194  RH  084%=      5-min Rain = 0
KST2 251049Z 16009KT 22/19 A2996 RMK A01 T02230194  RH  084%=      5-min Rain = 0
KST2 251050Z 15011KT 22/19 A2995 RMK A01 T02230194  RH  084%=      5-min Rain = 0
KST2 251051Z 16010KT 22/19 A2995 RMK A01 T02230194  RH  084%=      5-min Rain = 0
KST2 251052Z 16009KT 22/19 A2996 RMK A01 T02230194  RH  083%=      5-min Rain = 0
KST2 251053Z 16011KT 22/19 A2995 RMK A01 T02230194  RH  084%=      5-min Rain = 0
KST2 251054Z 16009KT 22/19 A2995 RMK A01 T02230194  RH  084%=      5-min Rain = 0
KST2 251055Z 16009KT 22/19 A2996 RMK A01 T02220193  RH  084%=      5-min Rain = 0
KST2 251056Z 16010KT 22/19 A2996 RMK A01 T02220194  RH  084%=      5-min Rain = 0
KST2 251057Z 16009KT 22/19 A2996 RMK A01 T02220194  RH  084%=      5-min Rain = 0
KST2 251058Z 16009KT 22/19 A2996 RMK A01 T02220194  RH  084%=      5-min Rain = 0
KST2 251059Z 16010KT 22/19 A2996 RMK A01 T02220194  RH  084%=      5-min Rain = 0
KST2 251100Z 16009KT 22/19 A2996 RMK A01 T02220194  RH  084%=      5-min Rain = 0
KST2 251101Z 16010KT 22/19 A2996 RMK A01 T02220194  RH  084%=      5-min Rain = 0
KST2 251102Z 16009KT 22/19 A2996 RMK A01 T02220194  RH  084%=      5-min Rain = 0
KST2 251103Z 16008KT 22/19 A2996 RMK A01 T02210194  RH  084%=      5-min Rain = 0
KST2 251104Z 17008KT 22/19 A2996 RMK A01 T02210193  RH  084%=      5-min Rain = 0
KST2 251105Z 17008KT 22/19 A2996 RMK A01 T02210193  RH  084%=      5-min Rain = 0
KST2 251106Z 17009KT 22/19 A2996 RMK A01 T02200193  RH  085%=      5-min Rain = 0
KST2 251107Z 16009KT 22/19 A2996 RMK A01 T02200193  RH  085%=      5-min Rain = 0
KST2 251108Z 17008KT 22/19 A2996 RMK A01 T02200193  RH  085%=      5-min Rain = 0
KST2 251109Z 17009KT 22/19 A2996 RMK A01 T02200193  RH  085%=      5-min Rain = 0
KST2 251110Z 16009KT 22/19 A2996 RMK A01 T02200193  RH  085%=      5-min Rain = 0
KST2 251111Z 16010KT 22/19 A2996 RMK A01 T02200193  RH  085%=      5-min Rain = 0
KST2 251112Z 16010KT 22/19 A2996 RMK A01 T02200193  RH  085%=      5-min Rain = 0
KST2 251113Z 16010KT 22/19 A2996 RMK A01 T02200193  RH  085%=      5-min Rain = 0
KST2 251114Z 16010KT 22/19 A2996 RMK A01 T02200193  RH  084%=      5-min Rain = 0
KST2 251115Z 16009KT 22/19 A2996 RMK A01 T02200193  RH  084%=      5-min Rain = 0
KST2 251116Z 16010KT 22/19 A2996 RMK A01 T02200193  RH  084%=      5-min Rain = 0
KST2 251117Z 16009KT 22/19 A2996 RMK A01 T02210193  RH  084%=      5-min Rain = 0
KST2 251118Z 16009KT 22/19 A2996 RMK A01 T02200193  RH  084%=      5-min Rain = 0
KST2 251119Z 16009KT 22/19 A2996 RMK A01 T02200193  RH  084%=      5-min Rain = 0
KST2 251120Z 16009KT 22/19 A2996 RMK A01 T02200193  RH  085%=      5-min Rain = 0
KST2 251121Z 16011KT 22/19 A2996 RMK A01 T02190193  RH  085%=      5-min Rain = 0
KST2 251122Z 16010KT 22/19 A2996 RMK A01 T02200193  RH  085%=      5-min Rain = 0
KST2 251123Z 16009KT 22/19 A2996 RMK A01 T02200192  RH  084%=      5-min Rain = 0
KST2 251124Z 16008KT 22/19 A2996 RMK A01 T02200192  RH  085%=      5-min Rain = 0
KST2 251125Z 16010KT 22/19 A2996 RMK A01 T02190193  RH  085%=      5-min Rain = 0
KST2 251126Z 16010KT 22/19 A2996 RMK A01 T02190192  RH  085%=      5-min Rain = 0
KST2 251127Z 16011KT 22/19 A2996 RMK A01 T02200192  RH  084%=      5-min Rain = 0
KST2 251128Z 16010KT 22/19 A2996 RMK A01 T02200192  RH  084%=      5-min Rain = 0
KST2 251129Z 16010KT 22/19 A2996 RMK A01 T02200193  RH  084%=      5-min Rain = 0
KST2 251130Z 16009KT 22/19 A2996 RMK A01 T02200193  RH  085%=      5-min Rain = 0
KST2 251131Z 16009KT 22/19 A2996 RMK A01 T02200193  RH  085%=      5-min Rain = 0
KST2 251132Z 16010KT 22/19 A2996 RMK A01 T02190192  RH  085%=      5-min Rain = 0
KST2 251133Z 16011KT 22/19 A2996 RMK A01 T02190193  RH  085%=      5-min Rain = 0
KST2 251134Z 16010KT 22/19 A2996 RMK A01 T02190192  RH  085%=      5-min Rain = 0
KST2 251135Z 16010KT 22/19 A2996 RMK A01 T02190192  RH  085%=      5-min Rain = 0
KST2 251136Z 16010KT 22/19 A2996 RMK A01 T02190192  RH  085%=      5-min Rain = 0
KST2 251137Z 16011KT 22/19 A2996 RMK A01 T02190192  RH  085%=      5-min Rain = 0
KST2 251138Z 16010KT 22/19 A2997 RMK A01 T02190192  RH  085%=      5-min Rain = 0
KST2 251139Z 16009KT 22/19 A2997 RMK A01 T02190192  RH  085%=      5-min Rain = 0
KST2 251140Z 16009KT 22/19 A2997 RMK A01 T02190193  RH  085%=      5-min Rain = 0
KST2 251141Z 16011KT 22/19 A2997 RMK A01 T02190192  RH  085%=      5-min Rain = 0
KST2 251142Z 16011KT 22/19 A2997 RMK A01 T02190192  RH  085%=      5-min Rain = 0
KST2 251143Z 16010KT 22/19 A2997 RMK A01 T02190192  RH  085%=      5-min Rain = 0
KST2 251144Z 16011KT 22/19 A2997 RMK A01 T02190192  RH  085%=      5-min Rain = 0
KST2 251145Z 16011KT 22/19 A2997 RMK A01 T02190192  RH  085%=      5-min Rain = 0
KST2 251146Z 16010KT 22/19 A2997 RMK A01 T02190192  RH  085%=      5-min Rain = 0
KST2 251147Z 16010KT 22/19 A2997 RMK A01 T02190193  RH  085%=      5-min Rain = 0
KST2 251148Z 16010KT 22/19 A2997 RMK A01 T02190193  RH  085%=      5-min Rain = 0
KST2 251149Z 17011KT 22/19 A2997 RMK A01 T02190193  RH  085%=      5-min Rain = 0
KST2 251150Z 16011KT 22/19 A2997 RMK A01 T02190192  RH  085%=      5-min Rain = 0
KST2 251151Z 17010KT 22/19 A2997 RMK A01 T02190192  RH  085%=      5-min Rain = 0
KST2 251152Z 17011KT 22/19 A2997 RMK A01 T02190192  RH  085%=      5-min Rain = 0
KST2 251153Z 17011KT 22/19 A2997 RMK A01 T02190192  RH  085%=      5-min Rain = 0
KST2 251154Z 16010KT 22/19 A2997 RMK A01 T02190193  RH  085%=      5-min Rain = 0
KST2 251155Z 17010KT 22/19 A2997 RMK A01 T02190193  RH  085%=      5-min Rain = 0
KST2 251156Z 16012KT 22/19 A2997 RMK A01 T02190193  RH  085%=      5-min Rain = 0
KST2 251157Z 17010KT 22/19 A2997 RMK A01 T02190193  RH  085%=      5-min Rain = 0
KST2 251158Z 17011KT 22/19 A2997 RMK A01 T02190193  RH  085%=      5-min Rain = 0
KST2 251159Z 17010KT 22/19 A2997 RMK A01 T02190192  RH  085%=      5-min Rain = 0
KST2 251200Z 16010KT 22/19 A2997 RMK A01 T02190192  RH  085%=      5-min Rain = 0
KST2 251201Z 17011KT 22/19 A2997 RMK A01 T02190193  RH  085%=      5-min Rain = 0
KST2 251202Z 16011KT 22/19 A2997 RMK A01 T02190193  RH  085%=      5-min Rain = 0
KST2 251203Z 17011G16KT 22/19 A2997 RMK A01 T02190193  RH  085%=      5-min Rain = 0
KST2 251204Z 16013KT 22/19 A2997 RMK A01 T02190193  RH  085%=      5-min Rain = 0
KST2 251205Z 17012KT 22/19 A2998 RMK A01 T02190193  RH  085%=      5-min Rain = 0
KST2 251206Z 16014KT 22/19 A2998 RMK A01 T02190193  RH  085%=      5-min Rain = 0
KST2 251207Z 16011KT 22/19 A2998 RMK A01 T02190193  RH  085%=      5-min Rain = 0
KST2 251208Z 16013KT 22/19 A2998 RMK A01 T02190193  RH  085%=      5-min Rain = 0
KST2 251209Z 16011KT 22/19 A2998 RMK A01 T02190193  RH  085%=      5-min Rain = 0
KST2 251210Z 16011KT 22/19 A2998 RMK A01 T02190193  RH  085%=      5-min Rain = 0
KST2 251211Z 16012KT 22/19 A2998 RMK A01 T02190193  RH  085%=      5-min Rain = 0
KST2 251212Z 16012KT 22/19 A2998 RMK A01 T02190193  RH  085%=      5-min Rain = 0
KST2 251213Z 16013KT 22/19 A2998 RMK A01 T02190193  RH  085%=      5-min Rain = 0
KST2 251214Z 16013KT 22/19 A2998 RMK A01 T02190193  RH  085%=      5-min Rain = 0
KST2 251215Z 16013KT 22/19 A2998 RMK A01 T02190193  RH  085%=      5-min Rain = 0
KST2 251216Z 16011KT 22/19 A2998 RMK A01 T02190193  RH  085%=      5-min Rain = 0
KST2 251217Z 16013KT 22/19 A2998 RMK A01 T02190193  RH  085%=      5-min Rain = 0
KST2 251218Z 16014KT 22/19 A2998 RMK A01 T02200193  RH  085%=      5-min Rain = 0
KST2 251219Z 16012KT 22/19 A2998 RMK A01 T02200194  RH  085%=      5-min Rain = 0
KST2 251220Z 17012KT 22/19 A2998 RMK A01 T02200193  RH  085%=      5-min Rain = 0
KST2 251221Z 16014KT 22/19 A2998 RMK A01 T02200194  RH  085%=      5-min Rain = 0
KST2 251222Z 16014KT 22/19 A2998 RMK A01 T02210194  RH  085%=      5-min Rain = 0
KST2 251223Z 16014KT 22/19 A2998 RMK A01 T02210193  RH  084%=      5-min Rain = 0
KST2 251224Z 17013KT 22/19 A2998 RMK A01 T02210194  RH  085%=      5-min Rain = 0
KST2 251225Z 17013KT 22/19 A2998 RMK A01 T02210194  RH  084%=      5-min Rain = 0
KST2 251226Z 17013KT 22/19 A2998 RMK A01 T02210194  RH  084%=      5-min Rain = 0
KST2 251227Z 16013KT 22/19 A2998 RMK A01 T02220194  RH  084%=      5-min Rain = 0
KST2 251228Z 17012KT 22/19 A2998 RMK A01 T02220194  RH  084%=      5-min Rain = 0
KST2 251229Z 17013KT 22/19 A2998 RMK A01 T02220194  RH  084%=      5-min Rain = 0
KST2 251230Z 17013KT 22/19 A2998 RMK A01 T02220194  RH  084%=      5-min Rain = 0
KST2 251231Z 17013KT 22/19 A2998 RMK A01 T02220194  RH  084%=      5-min Rain = 0
KST2 251232Z 17012KT 22/19 A2998 RMK A01 T02220194  RH  084%=      5-min Rain = 0
KST2 251233Z 17012KT 22/20 A2998 RMK A01 T02220195  RH  084%=      5-min Rain = 0
KST2 251234Z 17011KT 22/20 A2998 RMK A01 T02230195  RH  084%=      5-min Rain = 0
KST2 251235Z 17012KT 22/20 A2999 RMK A01 T02230195  RH  084%=      5-min Rain = 0
KST2 251236Z 17012KT 22/20 A2999 RMK A01 T02230195  RH  084%=      5-min Rain = 0
KST2 251237Z 17012KT 22/20 A2998 RMK A01 T02230195  RH  084%=      5-min Rain = 0
KST2 251238Z 16012KT 22/20 A2999 RMK A01 T02230195  RH  084%=      5-min Rain = 0
KST2 251239Z 17012KT 22/20 A2998 RMK A01 T02230195  RH  084%=      5-min Rain = 0
KST2 251240Z 16011KT 22/20 A2999 RMK A01 T02230196  RH  084%=      5-min Rain = 0
KST2 251241Z 17013KT 22/20 A2998 RMK A01 T02240196  RH  084%=      5-min Rain = 0
KST2 251242Z 16015KT 22/20 A2998 RMK A01 T02240195  RH  084%=      5-min Rain = 0
KST2 251243Z 17013KT 22/20 A2999 RMK A01 T02240195  RH  084%=      5-min Rain = 0
KST2 251244Z 17014KT 23/20 A2999 RMK A01 T02250196  RH  083%=      5-min Rain = 0
KST2 251245Z 17012KT 23/20 A2999 RMK A01 T02250196  RH  083%=      5-min Rain = 0
KST2 251246Z 17013KT 23/20 A2999 RMK A01 T02260196  RH  083%=      5-min Rain = 0
KST2 251247Z 17013KT 23/20 A2999 RMK A01 T02260196  RH  083%=      5-min Rain = 0
KST2 251248Z 17014KT 23/20 A2999 RMK A01 T02260196  RH  083%=      5-min Rain = 0
KST2 251249Z 16015KT 23/20 A2999 RMK A01 T02270196  RH  083%=      5-min Rain = 0
KST2 251250Z 17013KT 23/20 A2999 RMK A01 T02270197  RH  083%=      5-min Rain = 0
KST2 251251Z 17011KT 23/20 A2999 RMK A01 T02270197  RH  083%=      5-min Rain = 0
KST2 251252Z 16011KT 23/20 A2999 RMK A01 T02270197  RH  083%=      5-min Rain = 0
KST2 251253Z 17013KT 23/20 A2999 RMK A01 T02270197  RH  083%=      5-min Rain = 0
KST2 251254Z 17016KT 23/20 A2999 RMK A01 T02270197  RH  083%=      5-min Rain = 0
KST2 251255Z 16015KT 23/20 A2999 RMK A01 T02270197  RH  083%=      5-min Rain = 0
KST2 251256Z 16015KT 23/20 A2999 RMK A01 T02280197  RH  083%=      5-min Rain = 0
KST2 251257Z 17015KT 23/20 A2999 RMK A01 T02280197  RH  083%=      5-min Rain = 0
KST2 251258Z 16017KT 23/20 A2999 RMK A01 T02280197  RH  083%=      5-min Rain = 0
KST2 251259Z 17014KT 23/20 A2999 RMK A01 T02280197  RH  082%=      5-min Rain = 0
KST2 251300Z 17014G20KT 23/20 A2999 RMK A01 T02290198  RH  083%=      5-min Rain = 0
KST2 251301Z 17014KT 23/20 A2999 RMK A01 T02290198  RH  083%=      5-min Rain = 0
KST2 251302Z 17013G19KT 23/20 A2999 RMK A01 T02290198  RH  082%=      5-min Rain = 0
KST2 251303Z 17015KT 23/20 A2999 RMK A01 T02300198  RH  082%=      5-min Rain = 0
KST2 251304Z 17020KT 23/20 A2999 RMK A01 T02300198  RH  082%=      5-min Rain = 0
KST2 251305Z 17017KT 23/20 A2999 RMK A01 T02310198  RH  082%=      5-min Rain = 0
KST2 251306Z 17014KT 23/20 A2999 RMK A01 T02310199  RH  082%=      5-min Rain = 0
KST2 251307Z 17015KT 23/20 A2999 RMK A01 T02320199  RH  082%=      5-min Rain = 0
KST2 251308Z 17015KT 23/20 A2999 RMK A01 T02320199  RH  081%=      5-min Rain = 0
KST2 251309Z 17013KT 23/20 A2999 RMK A01 T02320199  RH  082%=      5-min Rain = 0
KST2 251310Z 17014KT 23/20 A2999 RMK A01 T02320199  RH  082%=      5-min Rain = 0
KST2 251311Z 17015KT 23/20 A2999 RMK A01 T02330199  RH  081%=      5-min Rain = 0
KST2 251312Z 17014KT 23/20 A2999 RMK A01 T02330199  RH  081%=      5-min Rain = 0
KST2 251313Z 17015KT 23/20 A2999 RMK A01 T02330199  RH  082%=      5-min Rain = 0
KST2 251314Z 17013KT 23/20 A2999 RMK A01 T02320200  RH  082%=      5-min Rain = 0
KST2 251315Z 17015KT 23/20 A2999 RMK A01 T02320200  RH  082%=      5-min Rain = 0
KST2 251316Z 17015KT 23/20 A30 RMK A01 T02320199  RH  082%=      5-min Rain = 0
KST2 251317Z 17015KT 23/20 A30 RMK A01 T02320199  RH  082%=      5-min Rain = 0
KST2 251318Z 17016KT 23/20 A30 RMK A01 T02320199  RH  082%=      5-min Rain = 0
KST2 251319Z 17015KT 23/20 A30 RMK A01 T02320199  RH  082%=      5-min Rain = 0
KST2 251320Z 16016KT 23/20 A30 RMK A01 T02320199  RH  082%=      5-min Rain = 0
KST2 251321Z 17017KT 23/20 A30 RMK A01 T02320199  RH  082%=      5-min Rain = 0
KST2 251322Z 17015KT 23/20 A30 RMK A01 T02330199  RH  082%=      5-min Rain = 0
KST2 251323Z 17015KT 23/20 A30 RMK A01 T02320200  RH  082%=      5-min Rain = 0
KST2 251324Z 17014KT 23/20 A30 RMK A01 T02330200  RH  082%=      5-min Rain = 0
KST2 251325Z 17013KT 23/20 A30 RMK A01 T02330200  RH  082%=      5-min Rain = 0
KST2 251326Z 16013KT 23/20 A30 RMK A01 T02340200  RH  082%=      5-min Rain = 0
KST2 251327Z 17013KT 23/20 A30 RMK A01 T02340201  RH  082%=      5-min Rain = 0
KST2 251328Z 16015KT 23/20 A30 RMK A01 T02340200  RH  081%=      5-min Rain = 0
KST2 251329Z 17015KT 23/20 A30 RMK A01 T02340200  RH  081%=      5-min Rain = 0
KST2 251330Z 17013KT 23/20 A30 RMK A01 T02340200  RH  081%=      5-min Rain = 0
KST2 251331Z 17015KT 23/20 A30 RMK A01 T02340200  RH  081%=      5-min Rain = 0
KST2 251332Z 17015KT 23/20 A30 RMK A01 T02340200  RH  081%=      5-min Rain = 0
KST2 251333Z 17014KT 24/20 A30 RMK A01 T02350201  RH  081%=      5-min Rain = 0
KST2 251334Z 17013KT 24/20 A30 RMK A01 T02350201  RH  081%=      5-min Rain = 0
KST2 251335Z 17013KT 24/20 A30 RMK A01 T02350201  RH  081%=      5-min Rain = 0
KST2 251336Z 17014KT 24/20 A30 RMK A01 T02360202  RH  081%=      5-min Rain = 0
KST2 251337Z 17013KT 24/20 A30 RMK A01 T02360202  RH  081%=      5-min Rain = 0
KST2 251338Z 17013KT 24/20 A30 RMK A01 T02370202  RH  081%=      5-min Rain = 0
KST2 251339Z 17016KT 24/20 A30 RMK A01 T02370201  RH  080%=      5-min Rain = 0
KST2 251340Z 17017KT 24/20 A30 RMK A01 T02370202  RH  081%=      5-min Rain = 0
KST2 251341Z 16018KT 24/20 A30 RMK A01 T02370201  RH  081%=      5-min Rain = 0
KST2 251342Z 16016KT 24/20 A30 RMK A01 T02370201  RH  081%=      5-min Rain = 0
KST2 251343Z 17017KT 24/20 A30 RMK A01 T02370202  RH  081%=      5-min Rain = 0
KST2 251344Z 17017KT 24/20 A30 RMK A01 T02380202  RH  081%=      5-min Rain = 0
KST2 251345Z 17017KT 24/20 A30 RMK A01 T02370201  RH  080%=      5-min Rain = 0
KST2 251346Z 16016KT 24/20 A30 RMK A01 T02380202  RH  080%=      5-min Rain = 0
KST2 251347Z 17017KT 24/20 A30 RMK A01 T02380202  RH  080%=      5-min Rain = 0
KST2 251348Z 17019KT 24/20 A30 RMK A01 T02380202  RH  080%=      5-min Rain = 0
KST2 251349Z 17017KT 24/20 A30 RMK A01 T02390202  RH  080%=      5-min Rain = 0
KST2 251350Z 17014KT 24/20 A30 RMK A01 T02390203  RH  080%=      5-min Rain = 0
KST2 251351Z 17020KT 24/20 A30 RMK A01 T02400203  RH  080%=      5-min Rain = 0
KST2 251352Z 17020KT 24/20 A30 RMK A01 T02400202  RH  079%=      5-min Rain = 0
KST2 251353Z 16016KT 24/20 A30 RMK A01 T02400203  RH  080%=      5-min Rain = 0
KST2 251354Z 17017KT 24/20 A30 RMK A01 T02410204  RH  080%=      5-min Rain = 0
KST2 251355Z 17018KT 24/20 A30 RMK A01 T02420203  RH  079%=      5-min Rain = 0
KST2 251356Z 17017KT 24/20 A30 RMK A01 T02420204  RH  079%=      5-min Rain = 0
KST2 251357Z 17017KT 24/20 A30 RMK A01 T02430204  RH  079%=      5-min Rain = 0
KST2 251358Z 17019KT 24/20 A30 RMK A01 T02430203  RH  078%=      5-min Rain = 0
KST2 251359Z 17016G21KT 24/20 A30 RMK A01 T02430204  RH  079%=      5-min Rain = 0
KST2 251400Z 17017KT 24/20 A30 RMK A01 T02440204  RH  078%=      5-min Rain = 0
KST2 251401Z 16016KT 25/21 A30 RMK A01 T02450205  RH  078%=      5-min Rain = 0
KST2 251402Z 17020KT 25/20 A30 RMK A01 T02450204  RH  078%=      5-min Rain = 0
KST2 251403Z 17019KT 25/20 A30 RMK A01 T02450204  RH  078%=      5-min Rain = 0
KST2 251404Z 17018KT 25/20 A30 RMK A01 T02450204  RH  078%=      5-min Rain = 0
KST2 251405Z 17018KT 25/20 A30 RMK A01 T02450204  RH  078%=      5-min Rain = 0
KST2 251406Z 17017KT 25/21 A30 RMK A01 T02460205  RH  078%=      5-min Rain = 0
KST2 251407Z 17014KT 25/21 A30 RMK A01 T02460205  RH  078%=      5-min Rain = 0
KST2 251408Z 17016KT 25/21 A30 RMK A01 T02470206  RH  078%=      5-min Rain = 0
KST2 251409Z 17020KT 25/20 A30 RMK A01 T02470204  RH  077%=      5-min Rain = 0
KST2 251410Z 17018G24KT 25/21 A30 RMK A01 T02470205  RH  077%=      5-min Rain = 0
KST2 251411Z 17021KT 25/20 A30 RMK A01 T02470204  RH  077%=      5-min Rain = 0
KST2 251412Z 17019KT 25/20 A30 RMK A01 T02470204  RH  077%=      5-min Rain = 0
KST2 251413Z 17017KT 25/20 A30 RMK A01 T02470204  RH  077%=      5-min Rain = 0
KST2 251414Z 17017KT 25/21 A30 RMK A01 T02480205  RH  077%=      5-min Rain = 0
KST2 251415Z 16017KT 25/21 A30 RMK A01 T02490206  RH  077%=      5-min Rain = 0
KST2 251416Z 17018KT 25/21 A30 RMK A01 T02490206  RH  077%=      5-min Rain = 0
KST2 251417Z 17018KT 25/21 A30 RMK A01 T02500205  RH  076%=      5-min Rain = 0
KST2 251418Z 17019KT 25/21 A30 RMK A01 T02500205  RH  076%=      5-min Rain = 0
KST2 251419Z 17018KT 25/21 A30 RMK A01 T02510206  RH  076%=      5-min Rain = 0
KST2 251420Z 16018G23KT 25/21 A30 RMK A01 T02510206  RH  076%=      5-min Rain = 0
KST2 251421Z 17018KT 25/21 A30 RMK A01 T02510206  RH  076%=      5-min Rain = 0
KST2 251422Z 17019KT 25/21 A30 RMK A01 T02510205  RH  076%=      5-min Rain = 0
KST2 251423Z 17016KT 25/21 A30 RMK A01 T02510207  RH  076%=      5-min Rain = 0
KST2 251424Z 17019KT 25/21 A30 RMK A01 T02520206  RH  076%=      5-min Rain = 0
KST2 251425Z 17022KT 25/21 A30 RMK A01 T02520206  RH  076%=      5-min Rain = 0
KST2 251426Z 17020KT 25/21 A30 RMK A01 T02520205  RH  075%=      5-min Rain = 0
KST2 251427Z 17021KT 25/21 A30 RMK A01 T02520205  RH  075%=      5-min Rain = 0
KST2 251428Z 17021KT 25/21 A30 RMK A01 T02520205  RH  075%=      5-min Rain = 0
KST2 251429Z 17021KT 25/21 A30 RMK A01 T02520205  RH  075%=      5-min Rain = 0
KST2 251430Z 17019KT 25/21 A30 RMK A01 T02520206  RH  075%=      5-min Rain = 0
KST2 251431Z 17021KT 25/21 A30 RMK A01 T02530205  RH  075%=      5-min Rain = 0
KST2 251432Z 17022KT 25/20 A30 RMK A01 T02540204  RH  074%=      5-min Rain = 0
KST2 251433Z 17021KT 25/20 A30 RMK A01 T02530204  RH  074%=      5-min Rain = 0
KST2 251434Z 17022KT 25/21 A30 RMK A01 T02530205  RH  074%=      5-min Rain = 0
KST2 251435Z 17020KT 25/21 A30 RMK A01 T02530205  RH  074%=      5-min Rain = 0
KST2 251436Z 18020KT 26/21 A30 RMK A01 T02550205  RH  074%=      5-min Rain = 0
KST2 251437Z 17020KT 25/21 A30 RMK A01 T02540206  RH  074%=      5-min Rain = 0
KST2 251438Z 16020KT 26/21 A30 RMK A01 T02550206  RH  074%=      5-min Rain = 0
KST2 251439Z 17019G24KT 26/21 A30 RMK A01 T02550206  RH  074%=      5-min Rain = 0
KST2 251440Z 16019KT 26/21 A30 RMK A01 T02550206  RH  074%=      5-min Rain = 0
KST2 251441Z 17019KT 26/21 A30 RMK A01 T02550206  RH  074%=      5-min Rain = 0
KST2 251442Z 17021KT 26/21 A30 RMK A01 T02550206  RH  074%=      5-min Rain = 0
KST2 251443Z 17022KT 26/21 A30 RMK A01 T02550205  RH  074%=      5-min Rain = 0
KST2 251444Z 17021KT 26/21 A30 RMK A01 T02550205  RH  074%=      5-min Rain = 0
KST2 251445Z 18019KT 26/21 A30 RMK A01 T02550205  RH  074%=      5-min Rain = 0
KST2 251446Z 17018G23KT 26/21 A30 RMK A01 T02560207  RH  074%=      5-min Rain = 0
KST2 251447Z 17019KT 26/21 A30 RMK A01 T02570206  RH  074%=      5-min Rain = 0
KST2 251448Z 16020KT 26/21 A30 RMK A01 T02570207  RH  074%=      5-min Rain = 0
KST2 251449Z 17020KT 26/21 A30 RMK A01 T02570206  RH  074%=      5-min Rain = 0
KST2 251450Z 17019KT 26/21 A30 RMK A01 T02560207  RH  074%=      5-min Rain = 0
KST2 251451Z 17018G23KT 26/21 A30 RMK A01 T02570206  RH  074%=      5-min Rain = 0
KST2 251452Z 16017KT 26/21 A30 RMK A01 T02580207  RH  074%=      5-min Rain = 0
KST2 251453Z 17018KT 26/21 A30 RMK A01 T02590207  RH  073%=      5-min Rain = 0
KST2 251454Z 17022KT 26/21 A30 RMK A01 T02590206  RH  073%=      5-min Rain = 0
KST2 251455Z 17019KT 26/21 A30 RMK A01 T02590207  RH  073%=      5-min Rain = 0
KST2 251456Z 17017G24KT 26/21 A3001 RMK A01 T02590208  RH  073%=      5-min Rain = 0
KST2 251457Z 18021KT 26/21 A30 RMK A01 T02610207  RH  072%=      5-min Rain = 0
KST2 251458Z 17019KT 26/21 A30 RMK A01 T02600207  RH  073%=      5-min Rain = 0
KST2 251459Z 17020KT 26/21 A3001 RMK A01 T02600207  RH  073%=      5-min Rain = 0
KST2 251500Z 17020KT 26/21 A30 RMK A01 T02600207  RH  072%=      5-min Rain = 0
KST2 251501Z 17022KT 26/21 A30 RMK A01 T02600206  RH  072%=      5-min Rain = 0
KST2 251502Z 17021KT 26/21 A30 RMK A01 T02600207  RH  072%=      5-min Rain = 0
KST2 251503Z 17019KT 26/21 A30 RMK A01 T02610207  RH  072%=      5-min Rain = 0
KST2 251504Z 17019KT 26/21 A30 RMK A01 T02620207  RH  072%=      5-min Rain = 0
KST2 251505Z 17019KT 26/21 A30 RMK A01 T02620208  RH  072%=      5-min Rain = 0
KST2 251506Z 17021KT 26/21 A30 RMK A01 T02630208  RH  071%=      5-min Rain = 0
KST2 251507Z 16023KT 26/21 A30 RMK A01 T02640208  RH  071%=      5-min Rain = 0
KST2 251508Z 16020KT 26/21 A30 RMK A01 T02620206  RH  071%=      5-min Rain = 0
KST2 251509Z 17017KT 26/21 A3001 RMK A01 T02630209  RH  072%=      5-min Rain = 0
KST2 251510Z 17020KT 27/21 A3001 RMK A01 T02650208  RH  071%=      5-min Rain = 0
KST2 251511Z 17021KT 27/21 A3001 RMK A01 T02650208  RH  071%=      5-min Rain = 0
KST2 251512Z 17020KT 27/21 A3001 RMK A01 T02650207  RH  071%=      5-min Rain = 0
KST2 251513Z 17020KT 26/21 A3001 RMK A01 T02640208  RH  071%=      5-min Rain = 0
KST2 251514Z 17020KT 26/21 A3001 RMK A01 T02640207  RH  071%=      5-min Rain = 0
KST2 251515Z 17020KT 26/21 A3001 RMK A01 T02640207  RH  071%=      5-min Rain = 0
KST2 251516Z 17019KT 26/21 A3001 RMK A01 T02630207  RH  071%=      5-min Rain = 0
KST2 251517Z 18021KT 26/21 A3001 RMK A01 T02630206  RH  071%=      5-min Rain = 0
KST2 251518Z 17020KT 26/21 A3001 RMK A01 T02630206  RH  071%=      5-min Rain = 0
KST2 251519Z 17021KT 26/21 A3001 RMK A01 T02630206  RH  071%=      5-min Rain = 0
KST2 251520Z 18019KT 26/21 A3001 RMK A01 T02640207  RH  071%=      5-min Rain = 0
KST2 251521Z 18019KT 26/21 A3001 RMK A01 T02640207  RH  071%=      5-min Rain = 0
KST2 251522Z 17017KT 26/21 A3001 RMK A01 T02640207  RH  071%=      5-min Rain = 0
KST2 251523Z 17017KT 27/21 A3001 RMK A01 T02650209  RH  071%=      5-min Rain = 0
KST2 251524Z 16021KT 27/21 A30 RMK A01 T02670208  RH  070%=      5-min Rain = 0
KST2 251525Z 17021KT 27/21 A30 RMK A01 T02660208  RH  070%=      5-min Rain = 0
KST2 251526Z 17021KT 27/21 A30 RMK A01 T02650206  RH  070%=      5-min Rain = 0
KST2 251527Z 16020KT 26/21 A30 RMK A01 T02640207  RH  071%=      5-min Rain = 0
KST2 251528Z 17018KT 26/21 A3001 RMK A01 T02640207  RH  071%=      5-min Rain = 0
KST2 251529Z 18017KT 27/21 A3001 RMK A01 T02660209  RH  071%=      5-min Rain = 0
KST2 251530Z 18018KT 27/21 A3001 RMK A01 T02670208  RH  070%=      5-min Rain = 0
KST2 251531Z 17016KT 27/21 A3001 RMK A01 T02670211  RH  071%=      5-min Rain = 0
KST2 251532Z 17015G20KT 27/21 A3001 RMK A01 T02690210  RH  070%=      5-min Rain = 0
KST2 251533Z 17018KT 27/21 A3001 RMK A01 T02700210  RH  070%=      5-min Rain = 0
KST2 251534Z 17020KT 27/21 A3001 RMK A01 T02680209  RH  070%=      5-min Rain = 0
KST2 251535Z 18021KT 27/21 A3001 RMK A01 T02670207  RH  070%=      5-min Rain = 0
KST2 251536Z 17020KT 27/21 A3001 RMK A01 T02660208  RH  070%=      5-min Rain = 0
KST2 251537Z 17022KT 27/21 A3001 RMK A01 T02650206  RH  070%=      5-min Rain = 0
KST2 251538Z 17021KT 27/21 A3001 RMK A01 T02650207  RH  070%=      5-min Rain = 0
KST2 251539Z 18021KT 27/21 A3001 RMK A01 T02650207  RH  070%=      5-min Rain = 0
KST2 251540Z 18023KT 27/21 A3001 RMK A01 T02660207  RH  070%=      5-min Rain = 0
KST2 251541Z 17020KT 27/21 A30 RMK A01 T02660207  RH  070%=      5-min Rain = 0
KST2 251542Z 18020KT 27/21 A3001 RMK A01 T02670208  RH  070%=      5-min Rain = 0
KST2 251543Z 18021KT 27/21 A3001 RMK A01 T02670208  RH  070%=      5-min Rain = 0
KST2 251544Z 18022G27KT 27/21 A3001 RMK A01 T02670208  RH  070%=      5-min Rain = 0
KST2 251545Z 17022G27KT 27/21 A3001 RMK A01 T02660206  RH  070%=      5-min Rain = 0
KST2 251546Z 17020KT 27/21 A3001 RMK A01 T02660207  RH  070%=      5-min Rain = 0
KST2 251547Z 17021KT 27/21 A3001 RMK A01 T02660207  RH  070%=      5-min Rain = 0
KST2 251548Z 17023KT 27/21 A3001 RMK A01 T02660207  RH  070%=      5-min Rain = 0
KST2 251549Z 17022KT 27/21 A30 RMK A01 T02650207  RH  070%=      5-min Rain = 0
KST2 251550Z 17019G24KT 27/21 A3001 RMK A01 T02650206  RH  070%=      5-min Rain = 0
KST2 251551Z 17018KT 27/21 A30 RMK A01 T02660207  RH  070%=      5-min Rain = 0
KST2 251552Z 17016KT 27/21 A3001 RMK A01 T02670210  RH  071%=      5-min Rain = 0
KST2 251553Z 18019KT 27/21 A3001 RMK A01 T02710210  RH  069%=      5-min Rain = 0
KST2 251554Z 17018KT 27/21 A3001 RMK A01 T02720210  RH  069%=      5-min Rain = 0
KST2 251555Z 16019KT 27/21 A30 RMK A01 T02720210  RH  069%=      5-min Rain = 0
KST2 251556Z 17021KT 27/21 A3001 RMK A01 T02720209  RH  069%=      5-min Rain = 0
KST2 251557Z 17022KT 27/21 A30 RMK A01 T02700208  RH  069%=      5-min Rain = 0
KST2 251558Z 17023KT 27/21 A30 RMK A01 T02700209  RH  069%=      5-min Rain = 0
KST2 251559Z 17020KT 27/21 A30 RMK A01 T02710208  RH  069%=      5-min Rain = 0
KST2 251600Z 16018G23KT 27/21 A30 RMK A01 T02710211  RH  070%=      5-min Rain = 0
KST2 251601Z 17021G27KT 27/21 A30 RMK A01 T02720209  RH  069%=      5-min Rain = 0
KST2 251602Z 17024KT 27/21 A30 RMK A01 T02720208  RH  068%=      5-min Rain = 0
KST2 251603Z 17022KT 27/21 A30 RMK A01 T02720207  RH  068%=      5-min Rain = 0
KST2 251604Z 17022KT 27/21 A30 RMK A01 T02720207  RH  068%=      5-min Rain = 0
KST2 251605Z 17022KT 27/21 A30 RMK A01 T02720208  RH  068%=      5-min Rain = 0
KST2 251606Z 17022KT 27/21 A30 RMK A01 T02720208  RH  068%=      5-min Rain = 0
KST2 251607Z 17021G26KT 27/21 A30 RMK A01 T02720207  RH  068%=      5-min Rain = 0
KST2 251608Z 17019G24KT 27/21 A3001 RMK A01 T02720209  RH  069%=      5-min Rain = 0
KST2 251609Z 16023KT 27/21 A30 RMK A01 T02740210  RH  068%=      5-min Rain = 0
KST2 251610Z 17023KT 27/21 A30 RMK A01 T02740208  RH  067%=      5-min Rain = 0
KST2 251611Z 18024KT 27/21 A30 RMK A01 T02730207  RH  067%=      5-min Rain = 0
KST2 251612Z 17023KT 27/21 A3001 RMK A01 T02730208  RH  068%=      5-min Rain = 0
KST2 251613Z 17023KT 27/21 A30 RMK A01 T02730208  RH  068%=      5-min Rain = 0
KST2 251614Z 17021G27KT 27/21 A3001 RMK A01 T02720209  RH  068%=      5-min Rain = 0
KST2 251615Z 17021KT 27/21 A3001 RMK A01 T02720208  RH  068%=      5-min Rain = 0
KST2 251616Z 17021KT 27/21 A3001 RMK A01 T02720208  RH  068%=      5-min Rain = 0
KST2 251617Z 18024KT 27/21 A30 RMK A01 T02720207  RH  067%=      5-min Rain = 0
KST2 251618Z 18023KT 27/21 A3001 RMK A01 T02720206  RH  067%=      5-min Rain = 0
KST2 251619Z 18020KT 27/21 A3001 RMK A01 T02720208  RH  068%=      5-min Rain = 0
KST2 251620Z 17021KT 27/21 A3001 RMK A01 T02730208  RH  067%=      5-min Rain = 0
KST2 251621Z 17020KT 28/21 A3001 RMK A01 T02750209  RH  067%=      5-min Rain = 0
KST2 251622Z 17021G27KT 28/21 A3001 RMK A01 T02760209  RH  067%=      5-min Rain = 0
KST2 251623Z 18024KT 28/21 A30 RMK A01 T02760207  RH  066%=      5-min Rain = 0
KST2 251624Z 18022KT 27/21 A3001 RMK A01 T02740208  RH  067%=      5-min Rain = 0
KST2 251625Z 17021KT 27/21 A30 RMK A01 T02740207  RH  067%=      5-min Rain = 0
KST2 251626Z 17021KT 27/21 A3001 RMK A01 T02730208  RH  067%=      5-min Rain = 0
KST2 251627Z 16020KT 27/21 A30 RMK A01 T02740208  RH  067%=      5-min Rain = 0
KST2 251628Z 17021KT 28/21 A30 RMK A01 T02760209  RH  067%=      5-min Rain = 0
KST2 251629Z 17022KT 28/21 A30 RMK A01 T02760208  RH  066%=      5-min Rain = 0
KST2 251630Z 16022KT 28/21 A30 RMK A01 T02760209  RH  067%=      5-min Rain = 0
KST2 251631Z 17022KT 28/21 A30 RMK A01 T02760208  RH  066%=      5-min Rain = 0
KST2 251632Z 17024G29KT 28/21 A30 RMK A01 T02760206  RH  066%=      5-min Rain = 0
KST2 251633Z 17019KT 28/21 A30 RMK A01 T02750207  RH  067%=      5-min Rain = 0
KST2 251634Z 16021G26KT 28/21 A30 RMK A01 T02770210  RH  067%=      5-min Rain = 0
KST2 251635Z 16022KT 28/21 A30 RMK A01 T02790209  RH  065%=      5-min Rain = 0
KST2 251636Z 16019KT 28/21 A30 RMK A01 T02780208  RH  066%=      5-min Rain = 0
KST2 251637Z 17020KT 28/21 A30 RMK A01 T02780209  RH  066%=      5-min Rain = 0
KST2 251638Z 17020KT 28/21 A30 RMK A01 T02780209  RH  066%=      5-min Rain = 0
KST2 251639Z 16021KT 28/21 A30 RMK A01 T02790209  RH  066%=      5-min Rain = 0
KST2 251640Z 16020G25KT 28/21 A30 RMK A01 T02790210  RH  066%=      5-min Rain = 0
KST2 251641Z 17022KT 28/21 A30 RMK A01 T02810208  RH  065%=      5-min Rain = 0
KST2 251642Z 17022KT 28/21 A30 RMK A01 T02810208  RH  065%=      5-min Rain = 0
KST2 251643Z 17022KT 28/21 A30 RMK A01 T02800208  RH  065%=      5-min Rain = 0
KST2 251644Z 17020G27KT 28/21 A30 RMK A01 T02810209  RH  065%=      5-min Rain = 0
KST2 251645Z 16019KT 28/21 A30 RMK A01 T02810209  RH  065%=      5-min Rain = 0
KST2 251646Z 17022KT 28/21 A30 RMK A01 T02810209  RH  065%=      5-min Rain = 0
KST2 251647Z 17020G25KT 28/21 A30 RMK A01 T02820208  RH  064%=      5-min Rain = 0
KST2 251648Z 17019KT 28/21 A30 RMK A01 T02810210  RH  065%=      5-min Rain = 0
KST2 251649Z 17020KT 28/21 A30 RMK A01 T02820212  RH  066%=      5-min Rain = 0
KST2 251650Z 17018KT 29/21 A30 RMK A01 T02850210  RH  064%=      5-min Rain = 0
KST2 251651Z 18019KT 29/21 A3001 RMK A01 T02850211  RH  064%=      5-min Rain = 0
KST2 251652Z 19021G26KT 29/21 A3001 RMK A01 T02860210  RH  064%=      5-min Rain = 0
KST2 251653Z 18018KT 29/21 A3001 RMK A01 T02850211  RH  064%=      5-min Rain = 0
KST2 251654Z 18021KT 29/21 A30 RMK A01 T02850209  RH  064%=      5-min Rain = 0
KST2 251655Z 18019KT 28/21 A3001 RMK A01 T02840210  RH  064%=      5-min Rain = 0
KST2 251656Z 17021KT 29/21 A3001 RMK A01 T02850211  RH  064%=      5-min Rain = 0
KST2 251657Z 17022KT 29/21 A30 RMK A01 T02870208  RH  063%=      5-min Rain = 0
KST2 251658Z 18022G28KT 29/21 A30 RMK A01 T02860209  RH  063%=      5-min Rain = 0
KST2 251659Z 18022KT 29/21 A3001 RMK A01 T02860209  RH  063%=      5-min Rain = 0
KST2 251700Z 18020KT 29/21 A3001 RMK A01 T02860209  RH  063%=      5-min Rain = 0
KST2 251701Z 17024KT 29/21 A30 RMK A01 T02860209  RH  063%=      5-min Rain = 0
KST2 251702Z 17021G26KT 29/21 A30 RMK A01 T02850209  RH  063%=      5-min Rain = 0
KST2 251703Z 17019KT 28/21 A3001 RMK A01 T02840210  RH  064%=      5-min Rain = 0
KST2 251704Z 18021G26KT 29/21 A3001 RMK A01 T02850211  RH  064%=      5-min Rain = 0
KST2 251705Z 18023KT 29/21 A3001 RMK A01 T02850209  RH  064%=      5-min Rain = 0
KST2 251706Z 17019G24KT 28/21 A3001 RMK A01 T02840210  RH  064%=      5-min Rain = 0
KST2 251707Z 17021KT 29/21 A30 RMK A01 T02850209  RH  064%=      5-min Rain = 0
KST2 251708Z 17023KT 29/21 A30 RMK A01 T02850209  RH  063%=      5-min Rain = 0
KST2 251709Z 18022KT 29/21 A30 RMK A01 T02850209  RH  063%=      5-min Rain = 0
KST2 251710Z 18022KT 29/21 A30 RMK A01 T02860209  RH  063%=      5-min Rain = 0
KST2 251711Z 18017KT 29/21 A30 RMK A01 T02860212  RH  064%=      5-min Rain = 0
KST2 251712Z 17019KT 29/21 A30 RMK A01 T02870212  RH  064%=      5-min Rain = 0
KST2 251713Z 17021KT 29/21 A30 RMK A01 T02870211  RH  063%=      5-min Rain = 0
KST2 251714Z 16021KT 29/21 A30 RMK A01 T02870210  RH  063%=      5-min Rain = 0
KST2 251715Z 17022G27KT 29/21 A30 RMK A01 T02870210  RH  063%=      5-min Rain = 0
KST2 251716Z 17024KT 29/21 A30 RMK A01 T02880210  RH  063%=      5-min Rain = 0
KST2 251717Z 17022KT 29/21 A30 RMK A01 T02870211  RH  063%=      5-min Rain = 0
KST2 251718Z 17022KT 29/21 A30 RMK A01 T02880209  RH  062%=      5-min Rain = 0
KST2 251719Z 17019G24KT 29/21 A30 RMK A01 T02880211  RH  063%=      5-min Rain = 0
KST2 251720Z 17023KT 29/21 A30 RMK A01 T02880210  RH  063%=      5-min Rain = 0
KST2 251721Z 17021KT 29/21 A30 RMK A01 T02870211  RH  063%=      5-min Rain = 0
KST2 251722Z 18017G22KT 29/21 A30 RMK A01 T02880214  RH  064%=      5-min Rain = 0
KST2 251723Z 17021KT 29/21 A30 RMK A01 T02890212  RH  063%=      5-min Rain = 0
KST2 251724Z 17018G24KT 29/21 A30 RMK A01 T02880212  RH  063%=      5-min Rain = 0
KST2 251725Z 17020G25KT 29/21 A30 RMK A01 T02910214  RH  063%=      5-min Rain = 0
KST2 251726Z 17021KT 29/21 A30 RMK A01 T02920210  RH  061%=      5-min Rain = 0
KST2 251727Z 16023KT 29/21 A30 RMK A01 T02900209  RH  062%=      5-min Rain = 0
KST2 251728Z 16023KT 29/21 A30 RMK A01 T02880210  RH  063%=      5-min Rain = 0
KST2 251729Z 17023KT 29/21 A30 RMK A01 T02880210  RH  063%=      5-min Rain = 0
KST2 251730Z 17023KT 29/21 A30 RMK A01 T02880209  RH  063%=      5-min Rain = 0
KST2 251731Z 17022KT 29/21 A30 RMK A01 T02870209  RH  063%=      5-min Rain = 0
KST2 251732Z 17021KT 29/21 A30 RMK A01 T02870209  RH  063%=      5-min Rain = 0
KST2 251733Z 18021KT 29/21 A30 RMK A01 T02890210  RH  062%=      5-min Rain = 0
KST2 251734Z 18018KT 29/21 A30 RMK A01 T02900211  RH  063%=      5-min Rain = 0
KST2 251735Z 18018G23KT 29/21 A30 RMK A01 T02900212  RH  063%=      5-min Rain = 0
KST2 251736Z 18022KT 29/21 A30 RMK A01 T02920210  RH  062%=      5-min Rain = 0
KST2 251737Z 17022KT 29/21 A30 RMK A01 T02910211  RH  062%=      5-min Rain = 0
KST2 251738Z 17019KT 29/21 A30 RMK A01 T02910212  RH  062%=      5-min Rain = 0
KST2 251739Z 17021KT 29/21 A30 RMK A01 T02930210  RH  061%=      5-min Rain = 0
KST2 251740Z 18022KT 29/21 A2999 RMK A01 T02910210  RH  061%=      5-min Rain = 0
KST2 251741Z 18021G26KT 29/21 A30 RMK A01 T02910210  RH  062%=      5-min Rain = 0
KST2 251742Z 17020KT 29/21 A30 RMK A01 T02910210  RH  061%=      5-min Rain = 0
KST2 251743Z 17023KT 29/21 A2999 RMK A01 T02920210  RH  061%=      5-min Rain = 0
KST2 251744Z 17019KT 29/21 A2999 RMK A01 T02920211  RH  062%=      5-min Rain = 0
KST2 251745Z 17016G22KT 29/21 A30 RMK A01 T02910214  RH  063%=      5-min Rain = 0
KST2 251746Z 17019KT 30/21 A30 RMK A01 T02950212  RH  061%=      5-min Rain = 0
KST2 251747Z 17022KT 30/21 A2999 RMK A01 T02950211  RH  061%=      5-min Rain = 0
KST2 251748Z 17022G27KT 29/21 A2999 RMK A01 T02930212  RH  062%=      5-min Rain = 0
KST2 251749Z 17021KT 29/21 A2999 RMK A01 T02940211  RH  061%=      5-min Rain = 0
KST2 251750Z 18020KT 29/21 A2999 RMK A01 T02930210  RH  061%=      5-min Rain = 0
KST2 251751Z 17019KT 29/21 A2999 RMK A01 T02910210  RH  061%=      5-min Rain = 0
KST2 251752Z 17022KT 29/21 A2999 RMK A01 T02920212  RH  062%=      5-min Rain = 0
KST2 251753Z 18020KT 29/21 A2999 RMK A01 T02930209  RH  061%=      5-min Rain = 0
KST2 251754Z 17022KT 29/21 A2999 RMK A01 T02920211  RH  062%=      5-min Rain = 0
KST2 251755Z 17018KT 29/21 A2999 RMK A01 T02930210  RH  061%=      5-min Rain = 0
KST2 251756Z 17022KT 29/21 A2999 RMK A01 T02930211  RH  061%=      5-min Rain = 0
KST2 251757Z 17020KT 29/21 A2999 RMK A01 T02940210  RH  061%=      5-min Rain = 0
KST2 251758Z 17019KT 29/21 A2999 RMK A01 T02940211  RH  061%=      5-min Rain = 0
KST2 251759Z 18018KT 30/21 A2999 RMK A01 T02950212  RH  061%=      5-min Rain = 0
KST2 251800Z 17019KT 30/21 A2999 RMK A01 T02970211  RH  060%=      5-min Rain = 0
KST2 251801Z 17019KT 30/21 A2999 RMK A01 T02960212  RH  061%=      5-min Rain = 0
KST2 251802Z 17020KT 29/21 A2999 RMK A01 T02940209  RH  060%=      5-min Rain = 0
KST2 251803Z 17020KT 29/21 A2999 RMK A01 T02920210  RH  061%=      5-min Rain = 0
KST2 251804Z 16020KT 29/21 A2999 RMK A01 T02930211  RH  061%=      5-min Rain = 0
KST2 251805Z 17021KT 29/21 A2999 RMK A01 T02940212  RH  061%=      5-min Rain = 0
KST2 251806Z 17017KT 30/21 A2999 RMK A01 T02950210  RH  060%=      5-min Rain = 0
KST2 251807Z 17019KT 30/21 A2999 RMK A01 T02960213  RH  061%=      5-min Rain = 0
KST2 251808Z 16021KT 30/21 A2999 RMK A01 T02960211  RH  060%=      5-min Rain = 0
KST2 251809Z 16023KT 30/21 A2999 RMK A01 T02950210  RH  060%=      5-min Rain = 0
KST2 251810Z 17023KT 29/21 A2998 RMK A01 T02940210  RH  061%=      5-min Rain = 0
KST2 251811Z 17018KT 29/21 A2999 RMK A01 T02940209  RH  060%=      5-min Rain = 0
KST2 251812Z 16020KT 29/21 A2999 RMK A01 T02940210  RH  061%=      5-min Rain = 0
KST2 251813Z 16018KT 29/21 A2998 RMK A01 T02940210  RH  061%=      5-min Rain = 0
KST2 251814Z 17019KT 29/21 A2998 RMK A01 T02940211  RH  061%=      5-min Rain = 0
KST2 251815Z 16019KT 30/21 A2998 RMK A01 T02950212  RH  061%=      5-min Rain = 0
KST2 251816Z 16021KT 30/21 A2998 RMK A01 T02970211  RH  060%=      5-min Rain = 0
KST2 251817Z 16017KT 30/21 A2998 RMK A01 T02960213  RH  061%=      5-min Rain = 0
KST2 251818Z 16021KT 30/21 A2998 RMK A01 T02970212  RH  060%=      5-min Rain = 0
KST2 251819Z 16021G26KT 30/21 A2998 RMK A01 T02990211  RH  059%=      5-min Rain = 0
KST2 251820Z 17019KT 30/21 A2998 RMK A01 T03000211  RH  059%=      5-min Rain = 0
KST2 251821Z 16018KT 30/21 A2998 RMK A01 T02990211  RH  059%=      5-min Rain = 0
KST2 251822Z 17018KT 30/21 A2998 RMK A01 T02990213  RH  060%=      5-min Rain = 0
KST2 251823Z 18017KT 30/22 A2998 RMK A01 T03010216  RH  061%=      5-min Rain = 0
KST2 251824Z 17015G20KT 30/22 A2998 RMK A01 T03030215  RH  059%=      5-min Rain = 0
KST2 251825Z 17018G24KT 30/22 A2998 RMK A01 T03030215  RH  059%=      5-min Rain = 0
KST2 251826Z 17016KT 30/21 A2998 RMK A01 T03020214  RH  059%=      5-min Rain = 0
KST2 251827Z 16019KT 30/21 A2997 RMK A01 T03000213  RH  059%=      5-min Rain = 0
KST2 251828Z 16020KT 30/21 A2997 RMK A01 T02980212  RH  060%=      5-min Rain = 0
KST2 251829Z 16017KT 30/21 A2998 RMK A01 T02990213  RH  060%=      5-min Rain = 0
KST2 251830Z 16020KT 30/21 A2997 RMK A01 T03010212  RH  059%=      5-min Rain = 0
KST2 251831Z 16018KT 30/21 A2997 RMK A01 T02990213  RH  060%=      5-min Rain = 0
KST2 251832Z 17019KT 30/21 A2997 RMK A01 T02980212  RH  060%=      5-min Rain = 0
KST2 251833Z 16022KT 30/21 A2997 RMK A01 T02970210  RH  060%=      5-min Rain = 0
KST2 251834Z 16020KT 30/21 A2997 RMK A01 T02980211  RH  060%=      5-min Rain = 0
KST2 251835Z 16021KT 30/21 A2997 RMK A01 T03000210  RH  059%=      5-min Rain = 0
KST2 251836Z 17022KT 30/21 A2997 RMK A01 T02970211  RH  060%=      5-min Rain = 0
KST2 251837Z 17020KT 30/21 A2997 RMK A01 T02960211  RH  060%=      5-min Rain = 0
KST2 251838Z 17018KT 30/21 A2997 RMK A01 T02960211  RH  060%=      5-min Rain = 0
KST2 251839Z 17018KT 30/21 A2997 RMK A01 T02960212  RH  061%=      5-min Rain = 0
KST2 251840Z 15020KT 30/21 A2997 RMK A01 T02960213  RH  061%=      5-min Rain = 0
KST2 251841Z 16023KT 30/21 A2997 RMK A01 T02980211  RH  059%=      5-min Rain = 0
KST2 251842Z 16020KT 30/21 A2997 RMK A01 T02980210  RH  059%=      5-min Rain = 0
KST2 251843Z 16016G21KT 30/21 A2997 RMK A01 T02960212  RH  061%=      5-min Rain = 0
KST2 251844Z 16015KT 30/22 A2997 RMK A01 T02980215  RH  061%=      5-min Rain = 0
KST2 251845Z 17018G24KT 30/21 A2996 RMK A01 T03000214  RH  060%=      5-min Rain = 0
KST2 251846Z 17019KT 30/21 A2996 RMK A01 T02970210  RH  059%=      5-min Rain = 0
KST2 251847Z 17018KT 29/21 A2996 RMK A01 T02940212  RH  061%=      5-min Rain = 0
KST2 251848Z 16020KT 29/21 A2996 RMK A01 T02940213  RH  062%=      5-min Rain = 0
KST2 251849Z 15019KT 29/21 A2996 RMK A01 T02940211  RH  061%=      5-min Rain = 0
KST2 251850Z 16017KT 30/21 A2996 RMK A01 T02980213  RH  060%=      5-min Rain = 0
KST2 251851Z 15021KT 30/21 A2996 RMK A01 T03000211  RH  059%=      5-min Rain = 0
KST2 251852Z 16019KT 30/21 A2996 RMK A01 T02970212  RH  060%=      5-min Rain = 0
KST2 251853Z 17019KT 30/21 A2996 RMK A01 T02960212  RH  061%=      5-min Rain = 0
KST2 251854Z 17019G24KT 30/21 A2996 RMK A01 T02950213  RH  061%=      5-min Rain = 0
KST2 251855Z 17022KT 30/21 A2996 RMK A01 T02950211  RH  060%=      5-min Rain = 0
KST2 251856Z 17021KT 30/21 A2996 RMK A01 T02970211  RH  060%=      5-min Rain = 0
KST2 251857Z 17020KT 30/21 A2996 RMK A01 T02980211  RH  060%=      5-min Rain = 0
KST2 251858Z 17021KT 30/21 A2996 RMK A01 T02960211  RH  060%=      5-min Rain = 0
KST2 251859Z 17019KT 30/21 A2996 RMK A01 T02960212  RH  061%=      5-min Rain = 0
KST2 251900Z 17018G23KT 30/21 A2996 RMK A01 T02950212  RH  061%=      5-min Rain = 0
KST2 251901Z 17017KT 30/21 A2996 RMK A01 T02960213  RH  061%=      5-min Rain = 0
KST2 251902Z 18019KT 30/21 A2996 RMK A01 T02960213  RH  061%=      5-min Rain = 0
KST2 251903Z 17018KT 30/21 A2996 RMK A01 T02960212  RH  061%=      5-min Rain = 0
KST2 251904Z 17017KT 30/21 A2996 RMK A01 T02950212  RH  061%=      5-min Rain = 0
KST2 251905Z 16022KT 30/21 A2996 RMK A01 T02950211  RH  061%=      5-min Rain = 0
KST2 251906Z 16020G26KT 30/21 A2996 RMK A01 T02960210  RH  060%=      5-min Rain = 0
KST2 251907Z 18017KT 30/21 A2996 RMK A01 T02990212  RH  060%=      5-min Rain = 0
KST2 251908Z 17019G25KT 30/21 A2996 RMK A01 T03010212  RH  059%=      5-min Rain = 0
KST2 251909Z 17020G25KT 30/21 A2996 RMK A01 T03020212  RH  059%=      5-min Rain = 0
KST2 251910Z 18021KT 30/21 A2996 RMK A01 T03020211  RH  058%=      5-min Rain = 0
KST2 251911Z 17018KT 30/21 A2996 RMK A01 T02990211  RH  059%=      5-min Rain = 0
KST2 251912Z 16019KT 30/21 A2996 RMK A01 T02990214  RH  061%=      5-min Rain = 0
KST2 251913Z 14019KT 30/21 A2996 RMK A01 T03010213  RH  059%=      5-min Rain = 0
KST2 251914Z 14020KT 30/21 A2996 RMK A01 T03020213  RH  059%=      5-min Rain = 0
KST2 251915Z 16016KT 30/21 A2996 RMK A01 T03020213  RH  059%=      5-min Rain = 0
KST2 251916Z 17016KT 30/21 A2996 RMK A01 T03010214  RH  060%=      5-min Rain = 0
KST2 251917Z 17017KT 30/22 A2996 RMK A01 T03020215  RH  060%=      5-min Rain = 0
KST2 251918Z 17020KT 30/22 A2996 RMK A01 T03040215  RH  059%=      5-min Rain = 0
KST2 251919Z 17022KT 31/21 A2995 RMK A01 T03050213  RH  058%=      5-min Rain = 0
KST2 251920Z 18021G26KT 31/22 A2995 RMK A01 T03050215  RH  059%=      5-min Rain = 0
KST2 251921Z 17023KT 31/21 A2995 RMK A01 T03050213  RH  058%=      5-min Rain = 0
KST2 251922Z 16022KT 30/21 A2995 RMK A01 T03030213  RH  059%=      5-min Rain = 0
KST2 251923Z 16023KT 30/21 A2995 RMK A01 T03030211  RH  058%=      5-min Rain = 0
KST2 251924Z 16021KT 30/21 A2995 RMK A01 T03020211  RH  058%=      5-min Rain = 0
KST2 251925Z 16020KT 30/21 A2995 RMK A01 T03040212  RH  058%=      5-min Rain = 0
KST2 251926Z 16019KT 31/21 A2995 RMK A01 T03060212  RH  057%=      5-min Rain = 0
KST2 251927Z 16021KT 31/21 A2995 RMK A01 T03050211  RH  057%=      5-min Rain = 0
KST2 251928Z 17019G24KT 30/21 A2995 RMK A01 T03020212  RH  058%=      5-min Rain = 0
KST2 251929Z 16021KT 30/21 A2994 RMK A01 T03020213  RH  059%=      5-min Rain = 0
KST2 251930Z 15022KT 30/21 A2994 RMK A01 T03030212  RH  058%=      5-min Rain = 0
KST2 251931Z 15020KT 30/21 A2995 RMK A01 T03030213  RH  059%=      5-min Rain = 0
KST2 251932Z 16019KT 30/21 A2995 RMK A01 T03030213  RH  059%=      5-min Rain = 0
KST2 251933Z 16019KT 30/22 A2995 RMK A01 T03030215  RH  059%=      5-min Rain = 0
KST2 251934Z 16021G27KT 31/21 A2994 RMK A01 T03050214  RH  058%=      5-min Rain = 0
KST2 251935Z 14020KT 31/21 A2994 RMK A01 T03050214  RH  059%=      5-min Rain = 0
KST2 251936Z 15022KT 31/21 A2994 RMK A01 T03060213  RH  058%=      5-min Rain = 0
KST2 251937Z 15020KT 31/21 A2994 RMK A01 T03060213  RH  058%=      5-min Rain = 0
KST2 251938Z 16019KT 30/21 A2994 RMK A01 T03030212  RH  058%=      5-min Rain = 0
KST2 251939Z 16021KT 30/21 A2994 RMK A01 T03030212  RH  058%=      5-min Rain = 0
KST2 251940Z 16019KT 30/21 A2994 RMK A01 T03030211  RH  058%=      5-min Rain = 0
KST2 251941Z 15021KT 30/21 A2994 RMK A01 T03020212  RH  058%=      5-min Rain = 0
KST2 251942Z 16024KT 30/21 A2994 RMK A01 T03040213  RH  058%=      5-min Rain = 0
KST2 251943Z 16021KT 31/21 A2994 RMK A01 T03080213  RH  057%=      5-min Rain = 0
KST2 251944Z 17021KT 31/21 A2994 RMK A01 T03080212  RH  057%=      5-min Rain = 0
KST2 251945Z 18017KT 31/21 A2994 RMK A01 T03060214  RH  058%=      5-min Rain = 0
KST2 251946Z 17021KT 31/22 A2994 RMK A01 T03070216  RH  058%=      5-min Rain = 0
KST2 251947Z 16020G25KT 31/21 A2994 RMK A01 T03080214  RH  057%=      5-min Rain = 0
KST2 251948Z 17023KT 31/21 A2994 RMK A01 T03080214  RH  057%=      5-min Rain = 0
KST2 251949Z 17020G26KT 31/21 A2994 RMK A01 T03080211  RH  056%=      5-min Rain = 0
KST2 251950Z 16022KT 31/21 A2994 RMK A01 T03080211  RH  056%=      5-min Rain = 0
KST2 251951Z 17020KT 31/21 A2994 RMK A01 T03070213  RH  057%=      5-min Rain = 0
KST2 251952Z 17017KT 31/22 A2994 RMK A01 T03080216  RH  058%=      5-min Rain = 0
KST2 251953Z 16017KT 31/22 A2994 RMK A01 T03110217  RH  057%=      5-min Rain = 0
KST2 251954Z 16023KT 31/22 A2994 RMK A01 T03110216  RH  057%=      5-min Rain = 0
KST2 251955Z 16021KT 31/21 A2994 RMK A01 T03080214  RH  057%=      5-min Rain = 0
KST2 251956Z 16018KT 31/21 A2994 RMK A01 T03050213  RH  058%=      5-min Rain = 0
KST2 251957Z 16021KT 30/21 A2994 RMK A01 T03040214  RH  059%=      5-min Rain = 0
KST2 251958Z 16019KT 31/21 A2994 RMK A01 T03050213  RH  058%=      5-min Rain = 0
KST2 251959Z 17018KT 31/21 A2994 RMK A01 T03050214  RH  058%=      5-min Rain = 0
KST2 252000Z 17020KT 30/21 A2994 RMK A01 T03040214  RH  059%=      5-min Rain = 0
KST2 252001Z 17017KT 31/22 A2994 RMK A01 T03060215  RH  058%=      5-min Rain = 0
KST2 252002Z 16016KT 31/22 A2994 RMK A01 T03090216  RH  058%=      5-min Rain = 0
KST2 252003Z 17021G26KT 31/22 A2994 RMK A01 T03110215  RH  057%=      5-min Rain = 0
KST2 252004Z 17022KT 31/21 A2993 RMK A01 T03110212  RH  056%=      5-min Rain = 0
KST2 252005Z 16019KT 31/21 A2993 RMK A01 T03090212  RH  056%=      5-min Rain = 0
KST2 252006Z 17018KT 31/21 A2993 RMK A01 T03090212  RH  056%=      5-min Rain = 0
KST2 252007Z 17018KT 31/21 A2993 RMK A01 T03100213  RH  056%=      5-min Rain = 0
KST2 252008Z 17021KT 31/21 A2993 RMK A01 T03110212  RH  056%=      5-min Rain = 0
KST2 252009Z 17018KT 31/21 A2993 RMK A01 T03110213  RH  056%=      5-min Rain = 0
KST2 252010Z 16018KT 31/21 A2993 RMK A01 T03120214  RH  056%=      5-min Rain = 0
KST2 252011Z 17019KT 31/21 A2993 RMK A01 T03120213  RH  055%=      5-min Rain = 0
KST2 252012Z 18018KT 31/22 A2993 RMK A01 T03120215  RH  056%=      5-min Rain = 0
KST2 252013Z 17016KT 31/22 A2993 RMK A01 T03130215  RH  056%=      5-min Rain = 0
KST2 252014Z 16017KT 31/22 A2993 RMK A01 T03130215  RH  056%=      5-min Rain = 0
KST2 252015Z 16018KT 31/21 A2993 RMK A01 T03120213  RH  056%=      5-min Rain = 0
KST2 252016Z 16016KT 31/21 A2993 RMK A01 T03090212  RH  056%=      5-min Rain = 0
KST2 252017Z 16018KT 31/21 A2993 RMK A01 T03070213  RH  057%=      5-min Rain = 0
KST2 252018Z 16018KT 31/21 A2993 RMK A01 T03070211  RH  057%=      5-min Rain = 0
KST2 252019Z 17018KT 31/21 A2993 RMK A01 T03070211  RH  057%=      5-min Rain = 0
KST2 252020Z 17018KT 31/21 A2993 RMK A01 T03060212  RH  057%=      5-min Rain = 0
KST2 252021Z 16020KT 31/21 A2993 RMK A01 T03050212  RH  058%=      5-min Rain = 0
KST2 252022Z 16021KT 30/21 A2993 RMK A01 T03040210  RH  057%=      5-min Rain = 0
KST2 252023Z 16019KT 30/21 A2993 RMK A01 T03020209  RH  058%=      5-min Rain = 0
KST2 252024Z 16018KT 30/21 A2993 RMK A01 T03010210  RH  058%=      5-min Rain = 0
KST2 252025Z 17019KT 30/21 A2993 RMK A01 T03020210  RH  058%=      5-min Rain = 0
KST2 252026Z 17017KT 31/21 A2992 RMK A01 T03050212  RH  058%=      5-min Rain = 0
KST2 252027Z 17017KT 31/21 A2992 RMK A01 T03080212  RH  057%=      5-min Rain = 0
KST2 252028Z 16022G27KT 31/21 A2992 RMK A01 T03080214  RH  057%=      5-min Rain = 0
KST2 252029Z 16021KT 31/21 A2992 RMK A01 T03090213  RH  057%=      5-min Rain = 0
KST2 252030Z 16022KT 31/21 A2992 RMK A01 T03070211  RH  057%=      5-min Rain = 0
KST2 252031Z 16023KT 31/21 A2992 RMK A01 T03050210  RH  057%=      5-min Rain = 0
KST2 252032Z 17021KT 30/21 A2992 RMK A01 T03040210  RH  057%=      5-min Rain = 0
KST2 252033Z 17021KT 31/21 A2992 RMK A01 T03050211  RH  057%=      5-min Rain = 0
KST2 252034Z 17018KT 31/21 A2992 RMK A01 T03080213  RH  057%=      5-min Rain = 0
KST2 252035Z 16017G24KT 31/21 A2993 RMK A01 T03110214  RH  056%=      5-min Rain = 0
KST2 252036Z 17020KT 31/21 A2992 RMK A01 T03110212  RH  056%=      5-min Rain = 0
KST2 252037Z 17018KT 31/21 A2992 RMK A01 T03080212  RH  057%=      5-min Rain = 0
KST2 252038Z 16018KT 31/21 A2992 RMK A01 T03070212  RH  057%=      5-min Rain = 0
KST2 252039Z 16021KT 31/21 A2992 RMK A01 T03060211  RH  057%=      5-min Rain = 0
KST2 252040Z 17020KT 31/21 A2992 RMK A01 T03070211  RH  057%=      5-min Rain = 0
KST2 252041Z 17018KT 31/21 A2992 RMK A01 T03050211  RH  057%=      5-min Rain = 0
KST2 252042Z 16016KT 31/21 A2992 RMK A01 T03060213  RH  058%=      5-min Rain = 0
KST2 252043Z 16018KT 31/21 A2992 RMK A01 T03100214  RH  057%=      5-min Rain = 0
KST2 252044Z 17016KT 31/22 A2992 RMK A01 T03130216  RH  056%=      5-min Rain = 0
KST2 252045Z 16022KT 31/21 A2992 RMK A01 T03140212  RH  055%=      5-min Rain = 0
KST2 252046Z 16022G27KT 31/21 A2992 RMK A01 T03120210  RH  055%=      5-min Rain = 0
KST2 252047Z 16021KT 31/21 A2992 RMK A01 T03080208  RH  055%=      5-min Rain = 0
KST2 252048Z 16021KT 31/21 A2992 RMK A01 T03060209  RH  056%=      5-min Rain = 0
KST2 252049Z 17019KT 31/21 A2993 RMK A01 T03050210  RH  057%=      5-min Rain = 0
KST2 252050Z 17021G26KT 30/21 A2992 RMK A01 T03040209  RH  057%=      5-min Rain = 0
KST2 252051Z 17020G26KT 30/21 A2992 RMK A01 T03040211  RH  058%=      5-min Rain = 0
KST2 252052Z 16022KT 31/21 A2992 RMK A01 T03060211  RH  057%=      5-min Rain = 0
KST2 252053Z 16020KT 31/21 A2992 RMK A01 T03060212  RH  057%=      5-min Rain = 0
KST2 252054Z 17020KT 31/21 A2992 RMK A01 T03060211  RH  057%=      5-min Rain = 0
KST2 252055Z 17017KT 31/21 A2992 RMK A01 T03050211  RH  057%=      5-min Rain = 0
KST2 252056Z 18022KT 31/21 A2992 RMK A01 T03050211  RH  057%=      5-min Rain = 0
KST2 252057Z 18021G26KT 31/21 A2992 RMK A01 T03050211  RH  057%=      5-min Rain = 0
KST2 252058Z 17019KT 30/21 A2993 RMK A01 T03030209  RH  057%=      5-min Rain = 0
KST2 252059Z 17016KT 30/21 A2993 RMK A01 T03030209  RH  057%=      5-min Rain = 0
KST2 252100Z 18019KT 30/21 A2993 RMK A01 T03040211  RH  057%=      5-min Rain = 0
KST2 252101Z 17017KT 31/21 A2993 RMK A01 T03060212  RH  057%=      5-min Rain = 0
KST2 252102Z 18018KT 31/21 A2992 RMK A01 T03080212  RH  057%=      5-min Rain = 0
KST2 252103Z 18018KT 31/21 A2992 RMK A01 T03100213  RH  056%=      5-min Rain = 0
KST2 252104Z 17016KT 31/21 A2993 RMK A01 T03130214  RH  056%=      5-min Rain = 0
KST2 252105Z 16016KT 32/21 A2993 RMK A01 T03150214  RH  055%=      5-min Rain = 0
KST2 252106Z 15016G21KT 31/22 A2993 RMK A01 T03130215  RH  056%=      5-min Rain = 0
KST2 252107Z 15022KT 31/21 A2992 RMK A01 T03120214  RH  056%=      5-min Rain = 0
KST2 252108Z 16020KT 31/21 A2993 RMK A01 T03090214  RH  057%=      5-min Rain = 0
KST2 252109Z 15020KT 31/21 A2993 RMK A01 T03080213  RH  057%=      5-min Rain = 0
KST2 252110Z 15019KT 31/21 A2993 RMK A01 T03070212  RH  057%=      5-min Rain = 0
KST2 252111Z 15018KT 31/21 A2993 RMK A01 T03060212  RH  057%=      5-min Rain = 0
KST2 252112Z 16015KT 30/21 A2993 RMK A01 T03040213  RH  058%=      5-min Rain = 0
KST2 252113Z 17018KT 30/21 A2993 RMK A01 T03040212  RH  058%=      5-min Rain = 0
KST2 252114Z 16018KT 30/21 A2993 RMK A01 T03040212  RH  058%=      5-min Rain = 0
KST2 252115Z 17017KT 31/21 A2993 RMK A01 T03050214  RH  058%=      5-min Rain = 0
KST2 252116Z 16018KT 31/21 A2993 RMK A01 T03060213  RH  058%=      5-min Rain = 0
KST2 252117Z 15021KT 31/21 A2993 RMK A01 T03080213  RH  057%=      5-min Rain = 0
KST2 252118Z 15019KT 31/21 A2993 RMK A01 T03090212  RH  056%=      5-min Rain = 0
KST2 252119Z 15019KT 31/21 A2992 RMK A01 T03100213  RH  056%=      5-min Rain = 0
KST2 252120Z 15017KT 31/21 A2993 RMK A01 T03100212  RH  056%=      5-min Rain = 0
KST2 252121Z 16018KT 31/21 A2992 RMK A01 T03100213  RH  056%=      5-min Rain = 0
KST2 252122Z 16018KT 31/21 A2993 RMK A01 T03100214  RH  057%=      5-min Rain = 0
KST2 252123Z 16019KT 31/21 A2993 RMK A01 T03120214  RH  056%=      5-min Rain = 0
KST2 252124Z 16019G24KT 31/21 A2993 RMK A01 T03120214  RH  056%=      5-min Rain = 0
KST2 252125Z 15023KT 31/21 A2993 RMK A01 T03100212  RH  056%=      5-min Rain = 0
KST2 252126Z 16021KT 31/21 A2993 RMK A01 T03080212  RH  057%=      5-min Rain = 0
KST2 252127Z 16018KT 31/21 A2993 RMK A01 T03080212  RH  057%=      5-min Rain = 0
KST2 252128Z 16019KT 31/21 A2993 RMK A01 T03080213  RH  057%=      5-min Rain = 0
KST2 252129Z 16017G23KT 31/21 A2993 RMK A01 T03080213  RH  057%=      5-min Rain = 0
KST2 252130Z 16018KT 31/21 A2993 RMK A01 T03070212  RH  057%=      5-min Rain = 0
KST2 252131Z 16018KT 31/21 A2993 RMK A01 T03080211  RH  056%=      5-min Rain = 0
KST2 252132Z 17019KT 31/21 A2992 RMK A01 T03080211  RH  056%=      5-min Rain = 0
KST2 252133Z 18017KT 31/21 A2992 RMK A01 T03080210  RH  056%=      5-min Rain = 0
KST2 252134Z 17017KT 31/21 A2992 RMK A01 T03080209  RH  056%=      5-min Rain = 0
KST2 252135Z 18016G21KT 31/21 A2992 RMK A01 T03090211  RH  056%=      5-min Rain = 0
KST2 252136Z 18017KT 31/21 A2992 RMK A01 T03100211  RH  055%=      5-min Rain = 0
KST2 252137Z 17017KT 31/21 A2992 RMK A01 T03100211  RH  056%=      5-min Rain = 0
KST2 252138Z 17020KT 31/21 A2992 RMK A01 T03080210  RH  056%=      5-min Rain = 0
KST2 252139Z 17020KT 31/21 A2992 RMK A01 T03090209  RH  055%=      5-min Rain = 0
KST2 252140Z 16018KT 31/21 A2992 RMK A01 T03080210  RH  056%=      5-min Rain = 0
KST2 252141Z 16014G20KT 31/21 A2992 RMK A01 T03070213  RH  057%=      5-min Rain = 0
KST2 252142Z 16018KT 31/21 A2992 RMK A01 T03080212  RH  057%=      5-min Rain = 0
KST2 252143Z 17020KT 31/21 A2992 RMK A01 T03080212  RH  057%=      5-min Rain = 0
KST2 252144Z 17020KT 31/21 A2992 RMK A01 T03070211  RH  057%=      5-min Rain = 0
KST2 252145Z 17018KT 31/21 A2992 RMK A01 T03060211  RH  057%=      5-min Rain = 0
KST2 252146Z 16019KT 31/21 A2992 RMK A01 T03050211  RH  057%=      5-min Rain = 0
KST2 252147Z 16018KT 31/21 A2993 RMK A01 T03050211  RH  057%=      5-min Rain = 0
KST2 252148Z 16019KT 30/21 A2993 RMK A01 T03040209  RH  057%=      5-min Rain = 0
KST2 252149Z 16017KT 30/21 A2992 RMK A01 T03040210  RH  057%=      5-min Rain = 0
KST2 252150Z 16019KT 30/21 A2992 RMK A01 T03030210  RH  057%=      5-min Rain = 0
KST2 252151Z 16016KT 30/21 A2992 RMK A01 T03030210  RH  057%=      5-min Rain = 0
KST2 252152Z 16018KT 30/21 A2992 RMK A01 T03030210  RH  058%=      5-min Rain = 0
KST2 252153Z 16022KT 30/21 A2992 RMK A01 T03030212  RH  058%=      5-min Rain = 0
KST2 252154Z 16019KT 30/21 A2992 RMK A01 T03020212  RH  059%=      5-min Rain = 0
KST2 252155Z 16021KT 30/21 A2992 RMK A01 T03010211  RH  059%=      5-min Rain = 0
KST2 252156Z 16021KT 30/21 A2992 RMK A01 T03010211  RH  058%=      5-min Rain = 0
KST2 252157Z 16021KT 30/21 A2992 RMK A01 T03010211  RH  059%=      5-min Rain = 0
KST2 252158Z 15021KT 30/21 A2992 RMK A01 T03000211  RH  059%=      5-min Rain = 0
KST2 252159Z 16019KT 30/21 A2992 RMK A01 T03000210  RH  059%=      5-min Rain = 0
KST2 252200Z 15017KT 30/21 A2992 RMK A01 T03000211  RH  059%=      5-min Rain = 0
KST2 252201Z 16016KT 30/21 A2992 RMK A01 T03000211  RH  059%=      5-min Rain = 0
KST2 252202Z 16017KT 30/21 A2992 RMK A01 T03000211  RH  059%=      5-min Rain = 0
KST2 252203Z 15019KT 30/21 A2992 RMK A01 T03010212  RH  059%=      5-min Rain = 0
KST2 252204Z 15018KT 30/21 A2992 RMK A01 T03010212  RH  059%=      5-min Rain = 0
KST2 252205Z 15017KT 30/21 A2992 RMK A01 T03010212  RH  059%=      5-min Rain = 0
KST2 252206Z 15019KT 30/21 A2992 RMK A01 T03010213  RH  059%=      5-min Rain = 0
KST2 252207Z 15017KT 30/21 A2992 RMK A01 T03000213  RH  059%=      5-min Rain = 0
KST2 252208Z 15015KT 30/21 A2992 RMK A01 T03000214  RH  060%=      5-min Rain = 0
KST2 252209Z 15014KT 30/21 A2992 RMK A01 T03010214  RH  060%=      5-min Rain = 0
KST2 252210Z 15017KT 30/21 A2992 RMK A01 T03020213  RH  059%=      5-min Rain = 0
KST2 252211Z 15020KT 30/21 A2991 RMK A01 T03020213  RH  059%=      5-min Rain = 0
KST2 252212Z 16019KT 30/21 A2991 RMK A01 T03010213  RH  059%=      5-min Rain = 0
KST2 252213Z 16018KT 30/21 A2991 RMK A01 T03000213  RH  060%=      5-min Rain = 0
KST2 252214Z 16021KT 30/21 A2991 RMK A01 T03000214  RH  060%=      5-min Rain = 0
KST2 252215Z 15021KT 30/21 A2991 RMK A01 T02990213  RH  060%=      5-min Rain = 0
KST2 252216Z 15020KT 30/21 A2991 RMK A01 T02990212  RH  060%=      5-min Rain = 0
KST2 252217Z 15019KT 30/21 A2991 RMK A01 T02980213  RH  060%=      5-min Rain = 0
KST2 252218Z 15019KT 30/21 A2991 RMK A01 T02980212  RH  060%=      5-min Rain = 0
KST2 252219Z 15020KT 30/21 A2991 RMK A01 T02990212  RH  060%=      5-min Rain = 0
KST2 252220Z 15019KT 30/21 A2991 RMK A01 T02990210  RH  059%=      5-min Rain = 0
KST2 252221Z 16016KT 30/21 A2991 RMK A01 T02990210  RH  059%=      5-min Rain = 0
KST2 252222Z 16018KT 30/21 A2991 RMK A01 T02990211  RH  059%=      5-min Rain = 0
KST2 252223Z 17017KT 30/21 A2991 RMK A01 T03000211  RH  059%=      5-min Rain = 0
KST2 252224Z 17016G22KT 30/21 A2991 RMK A01 T03000211  RH  059%=      5-min Rain = 0
KST2 252225Z 17019KT 30/21 A299 RMK A01 T03000211  RH  059%=      5-min Rain = 0
KST2 252226Z 17020KT 30/21 A299 RMK A01 T03000210  RH  058%=      5-min Rain = 0
KST2 252227Z 17019KT 30/21 A299 RMK A01 T03000210  RH  059%=      5-min Rain = 0
KST2 252228Z 16018KT 30/21 A299 RMK A01 T03000210  RH  059%=      5-min Rain = 0
KST2 252229Z 16016KT 30/21 A299 RMK A01 T03000212  RH  059%=      5-min Rain = 0
KST2 252230Z 16016KT 30/21 A299 RMK A01 T03000212  RH  059%=      5-min Rain = 0
KST2 252231Z 15019KT 30/21 A299 RMK A01 T03010213  RH  059%=      5-min Rain = 0
KST2 252232Z 15021KT 30/21 A299 RMK A01 T03010213  RH  059%=      5-min Rain = 0
KST2 252233Z 15020KT 30/21 A2991 RMK A01 T03010214  RH  059%=      5-min Rain = 0
KST2 252234Z 15019KT 30/21 A2991 RMK A01 T03010213  RH  059%=      5-min Rain = 0
KST2 252235Z 15018KT 30/21 A2991 RMK A01 T03000213  RH  060%=      5-min Rain = 0
KST2 252236Z 15019KT 30/21 A2991 RMK A01 T03000214  RH  060%=      5-min Rain = 0
KST2 252237Z 15017KT 30/21 A2991 RMK A01 T03000213  RH  060%=      5-min Rain = 0
KST2 252238Z 15017G22KT 30/21 A2991 RMK A01 T03000214  RH  060%=      5-min Rain = 0
KST2 252239Z 16019KT 30/21 A2991 RMK A01 T03010214  RH  060%=      5-min Rain = 0
KST2 252240Z 15016KT 30/21 A2991 RMK A01 T03010214  RH  060%=      5-min Rain = 0
KST2 252241Z 16018KT 30/21 A2991 RMK A01 T03010214  RH  059%=      5-min Rain = 0
KST2 252242Z 16018KT 30/21 A2991 RMK A01 T03020212  RH  059%=      5-min Rain = 0
KST2 252243Z 15018KT 30/21 A2991 RMK A01 T03020213  RH  059%=      5-min Rain = 0
KST2 252244Z 15019KT 30/21 A2991 RMK A01 T03020212  RH  058%=      5-min Rain = 0
KST2 252245Z 16019G25KT 30/21 A2991 RMK A01 T03020211  RH  058%=      5-min Rain = 0
KST2 252246Z 16017KT 30/21 A2991 RMK A01 T03010211  RH  058%=      5-min Rain = 0
KST2 252247Z 16017KT 30/21 A2991 RMK A01 T03010212  RH  059%=      5-min Rain = 0
KST2 252248Z 15016KT 30/21 A2991 RMK A01 T03020213  RH  059%=      5-min Rain = 0
KST2 252249Z 16015KT 30/21 A2991 RMK A01 T03020214  RH  059%=      5-min Rain = 0
KST2 252250Z 16013KT 30/22 A2991 RMK A01 T03030215  RH  059%=      5-min Rain = 0
KST2 252251Z 15017G22KT 30/22 A2991 RMK A01 T03040215  RH  059%=      5-min Rain = 0
KST2 252252Z 16020KT 30/21 A299 RMK A01 T03040211  RH  058%=      5-min Rain = 0
KST2 252253Z 16019KT 30/21 A299 RMK A01 T03030211  RH  058%=      5-min Rain = 0
KST2 252254Z 16022KT 30/21 A299 RMK A01 T03020211  RH  058%=      5-min Rain = 0
KST2 252255Z 16020KT 30/21 A299 RMK A01 T03020210  RH  058%=      5-min Rain = 0
KST2 252256Z 16020KT 30/21 A299 RMK A01 T03010210  RH  058%=      5-min Rain = 0
KST2 252257Z 15020KT 30/21 A299 RMK A01 T03010210  RH  058%=      5-min Rain = 0
KST2 252258Z 16020KT 30/21 A299 RMK A01 T03010210  RH  058%=      5-min Rain = 0
KST2 252259Z 16020G25KT 30/21 A299 RMK A01 T03010210  RH  058%=      5-min Rain = 0
KST2 252300Z 16021KT 30/21 A299 RMK A01 T03020210  RH  058%=      5-min Rain = 0
KST2 252301Z 15020KT 30/21 A2991 RMK A01 T03020210  RH  058%=      5-min Rain = 0
KST2 252302Z 16020G25KT 30/21 A2991 RMK A01 T03020210  RH  058%=      5-min Rain = 0
KST2 252303Z 16021KT 30/21 A2991 RMK A01 T03020209  RH  058%=      5-min Rain = 0
KST2 252304Z 15020KT 30/21 A2991 RMK A01 T03010211  RH  058%=      5-min Rain = 0
KST2 252305Z 16018G23KT 30/21 A2991 RMK A01 T03010212  RH  059%=      5-min Rain = 0
KST2 252306Z 16016G21KT 30/21 A2991 RMK A01 T03010212  RH  059%=      5-min Rain = 0
KST2 252307Z 16016KT 30/21 A2991 RMK A01 T03020214  RH  059%=      5-min Rain = 0
KST2 252308Z 16018KT 30/21 A299 RMK A01 T03030213  RH  059%=      5-min Rain = 0
KST2 252309Z 16018KT 30/21 A299 RMK A01 T03030214  RH  059%=      5-min Rain = 0
KST2 252310Z 16017KT 30/21 A299 RMK A01 T03030213  RH  059%=      5-min Rain = 0
KST2 252311Z 17017KT 30/21 A2991 RMK A01 T03020214  RH  059%=      5-min Rain = 0
KST2 252312Z 16020KT 30/21 A299 RMK A01 T03020211  RH  058%=      5-min Rain = 0
KST2 252313Z 16017KT 30/21 A2991 RMK A01 T03020212  RH  059%=      5-min Rain = 0
KST2 252314Z 17019KT 30/21 A299 RMK A01 T03020213  RH  059%=      5-min Rain = 0
KST2 252315Z 16019KT 30/21 A299 RMK A01 T03020211  RH  058%=      5-min Rain = 0
KST2 252316Z 15016KT 30/21 A299 RMK A01 T03010212  RH  059%=      5-min Rain = 0
KST2 252317Z 16021KT 30/21 A299 RMK A01 T03020210  RH  058%=      5-min Rain = 0
KST2 252318Z 16019KT 30/21 A299 RMK A01 T03020210  RH  058%=      5-min Rain = 0
KST2 252319Z 16022KT 30/21 A299 RMK A01 T03020210  RH  058%=      5-min Rain = 0
KST2 252320Z 16018KT 30/21 A299 RMK A01 T03010211  RH  058%=      5-min Rain = 0
KST2 252321Z 17018G23KT 30/21 A299 RMK A01 T03010213  RH  059%=      5-min Rain = 0
KST2 252322Z 16021KT 30/21 A2989 RMK A01 T03010212  RH  059%=      5-min Rain = 0
KST2 252323Z 16019KT 30/21 A2989 RMK A01 T03010212  RH  059%=      5-min Rain = 0
KST2 252324Z 16017KT 30/21 A2989 RMK A01 T02990214  RH  060%=      5-min Rain = 0
KST2 252325Z 16018KT 30/22 A2989 RMK A01 T02990215  RH  061%=      5-min Rain = 0
KST2 252326Z 16019KT 30/21 A2989 RMK A01 T02990213  RH  060%=      5-min Rain = 0
KST2 252327Z 16018KT 30/21 A2989 RMK A01 T02980213  RH  060%=      5-min Rain = 0
KST2 252328Z 16018KT 30/21 A2989 RMK A01 T02980214  RH  061%=      5-min Rain = 0
KST2 252329Z 16018KT 30/21 A2989 RMK A01 T02980213  RH  060%=      5-min Rain = 0
KST2 252330Z 16020KT 30/21 A2989 RMK A01 T02970213  RH  061%=      5-min Rain = 0
KST2 252331Z 15018KT 30/21 A2989 RMK A01 T02960213  RH  061%=      5-min Rain = 0
KST2 252332Z 16018KT 30/21 A2989 RMK A01 T02970213  RH  061%=      5-min Rain = 0
KST2 252333Z 16019G24KT 30/21 A2989 RMK A01 T02960213  RH  061%=      5-min Rain = 0
KST2 252334Z 16021KT 30/21 A2989 RMK A01 T02960212  RH  060%=      5-min Rain = 0
KST2 252335Z 16018KT 30/21 A2989 RMK A01 T02960212  RH  060%=      5-min Rain = 0
KST2 252336Z 16017KT 30/21 A2989 RMK A01 T02960213  RH  061%=      5-min Rain = 0
KST2 252337Z 16015G22KT 30/21 A2989 RMK A01 T02970213  RH  061%=      5-min Rain = 0
KST2 252338Z 16015KT 30/21 A2989 RMK A01 T02980214  RH  061%=      5-min Rain = 0
KST2 252339Z 15019KT 30/21 A2989 RMK A01 T02980213  RH  060%=      5-min Rain = 0
KST2 252340Z 16020KT 30/21 A2989 RMK A01 T02980213  RH  060%=      5-min Rain = 0
KST2 252341Z 16018KT 30/21 A2989 RMK A01 T02980214  RH  061%=      5-min Rain = 0
KST2 252342Z 16018KT 30/21 A2989 RMK A01 T02970214  RH  061%=      5-min Rain = 0
KST2 252343Z 16017KT 30/21 A2989 RMK A01 T02970214  RH  061%=      5-min Rain = 0
KST2 252344Z 16017KT 30/21 A2989 RMK A01 T02980214  RH  061%=      5-min Rain = 0
KST2 252345Z 16018KT 30/21 A2989 RMK A01 T02980213  RH  060%=      5-min Rain = 0
KST2 252346Z 16016KT 30/21 A2989 RMK A01 T02980214  RH  061%=      5-min Rain = 0
KST2 252347Z 15017KT 30/21 A2989 RMK A01 T02970214  RH  061%=      5-min Rain = 0
KST2 252348Z 16021KT 30/21 A2989 RMK A01 T02970214  RH  061%=      5-min Rain = 0
KST2 252349Z 16019KT 30/21 A2989 RMK A01 T02960212  RH  061%=      5-min Rain = 0
KST2 252350Z 16017KT 30/21 A2989 RMK A01 T02950214  RH  062%=      5-min Rain = 0
KST2 252351Z 16021KT 30/21 A2989 RMK A01 T02950214  RH  062%=      5-min Rain = 0
KST2 252352Z 16021KT 29/21 A2989 RMK A01 T02940213  RH  062%=      5-min Rain = 0
KST2 252353Z 16021KT 29/21 A2989 RMK A01 T02940212  RH  062%=      5-min Rain = 0
KST2 252354Z 15019KT 29/21 A2989 RMK A01 T02930213  RH  062%=      5-min Rain = 0
KST2 252355Z 16017KT 29/21 A2989 RMK A01 T02930213  RH  062%=      5-min Rain = 0
KST2 252356Z 16020KT 29/21 A2989 RMK A01 T02930214  RH  062%=      5-min Rain = 0
KST2 252357Z 16021KT 29/21 A2989 RMK A01 T02930214  RH  062%=      5-min Rain = 0
KST2 252358Z 16019KT 29/21 A2989 RMK A01 T02920213  RH  062%=      5-min Rain = 0
KST2 252359Z 16019KT 29/21 A2989 RMK A01 T02920213  RH  062%=      5-min Rain = 0
KST2 260000Z 15020KT 29/21 A2989 RMK A01 T02920213  RH  062%=      5-min Rain = 0
KST2 260001Z 16020G25KT 29/21 A2988 RMK A01 T02920213  RH  062%=      5-min Rain = 0
KST2 260002Z 16021KT 29/21 A2988 RMK A01 T02920212  RH  062%=      5-min Rain = 0
KST2 260003Z 15018KT 29/21 A2988 RMK A01 T02930214  RH  062%=      5-min Rain = 0
KST2 260004Z 16016KT 29/21 A2988 RMK A01 T02930214  RH  062%=      5-min Rain = 0
KST2 260005Z 15017KT 29/21 A2988 RMK A01 T02940214  RH  062%=      5-min Rain = 0
KST2 260006Z 15016KT 29/22 A2988 RMK A01 T02940215  RH  063%=      5-min Rain = 0
KST2 260007Z 15019KT 29/21 A2988 RMK A01 T02940214  RH  062%=      5-min Rain = 0
KST2 260008Z 15021KT 29/21 A2988 RMK A01 T02940213  RH  062%=      5-min Rain = 0
KST2 260009Z 15019KT 29/21 A2988 RMK A01 T02940214  RH  062%=      5-min Rain = 0
KST2 260010Z 16019KT 29/22 A2988 RMK A01 T02940215  RH  062%=      5-min Rain = 0
KST2 260011Z 15018KT 29/21 A2989 RMK A01 T02940214  RH  062%=      5-min Rain = 0
KST2 260012Z 16020G27KT 29/21 A2989 RMK A01 T02940214  RH  062%=      5-min Rain = 0
KST2 260013Z 16021KT 30/21 A2989 RMK A01 T02950213  RH  062%=      5-min Rain = 0
KST2 260014Z 15018KT 29/21 A2989 RMK A01 T02940213  RH  062%=      5-min Rain = 0
KST2 260015Z 15019G25KT 29/21 A2989 RMK A01 T02940214  RH  062%=      5-min Rain = 0
KST2 260016Z 15019KT 29/21 A2989 RMK A01 T02940213  RH  062%=      5-min Rain = 0
KST2 260017Z 15021KT 29/21 A2989 RMK A01 T02940213  RH  062%=      5-min Rain = 0
KST2 260018Z 15021KT 29/21 A2988 RMK A01 T02940214  RH  062%=      5-min Rain = 0
KST2 260019Z 16019KT 29/21 A2988 RMK A01 T02940214  RH  062%=      5-min Rain = 0
KST2 260020Z 15021KT 29/21 A2988 RMK A01 T02940214  RH  062%=      5-min Rain = 0
KST2 260021Z 16017KT 29/22 A2988 RMK A01 T02930215  RH  063%=      5-min Rain = 0
KST2 260022Z 15018KT 29/22 A2989 RMK A01 T02930216  RH  063%=      5-min Rain = 0
KST2 260023Z 15019KT 29/22 A2989 RMK A01 T02930216  RH  063%=      5-min Rain = 0
KST2 260024Z 15020KT 29/22 A2989 RMK A01 T02930215  RH  063%=      5-min Rain = 0
KST2 260025Z 16017KT 29/22 A2989 RMK A01 T02930216  RH  063%=      5-min Rain = 0
KST2 260026Z 16019KT 29/22 A2988 RMK A01 T02930215  RH  063%=      5-min Rain = 0
KST2 260027Z 15019KT 29/22 A2988 RMK A01 T02930215  RH  063%=      5-min Rain = 0
KST2 260028Z 15020KT 29/22 A2988 RMK A01 T02920215  RH  063%=      5-min Rain = 0
KST2 260029Z 16021KT 29/21 A2988 RMK A01 T02920214  RH  063%=      5-min Rain = 0
KST2 260030Z 16015KT 29/22 A2989 RMK A01 T02910216  RH  064%=      5-min Rain = 0
KST2 260031Z 15019KT 29/22 A2989 RMK A01 T02910215  RH  064%=      5-min Rain = 0
KST2 260032Z 15018KT 29/22 A2989 RMK A01 T02920215  RH  063%=      5-min Rain = 0
KST2 260033Z 15018KT 29/22 A2989 RMK A01 T02920215  RH  063%=      5-min Rain = 0
KST2 260034Z 16020KT 29/22 A2989 RMK A01 T02920215  RH  063%=      5-min Rain = 0
KST2 260035Z 16018KT 29/22 A2989 RMK A01 T02920215  RH  063%=      5-min Rain = 0
KST2 260036Z 15016KT 29/22 A2989 RMK A01 T02920216  RH  064%=      5-min Rain = 0
KST2 260037Z 15018G24KT 29/22 A2989 RMK A01 T02910215  RH  063%=      5-min Rain = 0
KST2 260038Z 16022KT 29/21 A2989 RMK A01 T02910214  RH  063%=      5-min Rain = 0
KST2 260039Z 16021KT 29/21 A2989 RMK A01 T02900214  RH  063%=      5-min Rain = 0
KST2 260040Z 15019KT 29/21 A2989 RMK A01 T02910214  RH  063%=      5-min Rain = 0
KST2 260041Z 15018G23KT 29/21 A2989 RMK A01 T02900214  RH  063%=      5-min Rain = 0
KST2 260042Z 15017G22KT 29/21 A2989 RMK A01 T02900214  RH  063%=      5-min Rain = 0
KST2 260043Z 15017G24KT 29/21 A2989 RMK A01 T02910214  RH  063%=      5-min Rain = 0
KST2 260044Z 15019KT 29/21 A2989 RMK A01 T02900214  RH  063%=      5-min Rain = 0
KST2 260045Z 15019KT 29/21 A2989 RMK A01 T02900214  RH  064%=      5-min Rain = 0
KST2 260046Z 15016KT 29/21 A2989 RMK A01 T02890214  RH  064%=      5-min Rain = 0
KST2 260047Z 16018G23KT 29/21 A2989 RMK A01 T02890214  RH  064%=      5-min Rain = 0
KST2 260048Z 15017KT 29/21 A2989 RMK A01 T02890213  RH  064%=      5-min Rain = 0
KST2 260049Z 15016KT 29/21 A2989 RMK A01 T02890214  RH  064%=      5-min Rain = 0
KST2 260050Z 15018KT 29/21 A2989 RMK A01 T02880213  RH  064%=      5-min Rain = 0
KST2 260051Z 16016KT 29/21 A2989 RMK A01 T02880213  RH  064%=      5-min Rain = 0
KST2 260052Z 15014KT 29/22 A299 RMK A01 T02880215  RH  064%=      5-min Rain = 0
KST2 260053Z 15016KT 29/21 A299 RMK A01 T02880214  RH  064%=      5-min Rain = 0
KST2 260054Z 15017KT 29/21 A299 RMK A01 T02880213  RH  064%=      5-min Rain = 0
KST2 260055Z 15015KT 29/21 A299 RMK A01 T02880213  RH  064%=      5-min Rain = 0
KST2 260056Z 15013KT 29/21 A299 RMK A01 T02880214  RH  064%=      5-min Rain = 0
KST2 260057Z 15012KT 29/21 A299 RMK A01 T02870214  RH  064%=      5-min Rain = 0
KST2 260058Z 15015KT 29/21 A299 RMK A01 T02870214  RH  064%=      5-min Rain = 0
KST2 260059Z 14016KT 29/21 A299 RMK A01 T02870214  RH  064%=      5-min Rain = 0
KST2 260100Z 15014KT 29/21 A299 RMK A01 T02870213  RH  064%=      5-min Rain = 0
KST2 260101Z 15015KT 29/21 A299 RMK A01 T02870213  RH  064%=      5-min Rain = 0
KST2 260102Z 15014KT 29/21 A299 RMK A01 T02860214  RH  065%=      5-min Rain = 0
KST2 260103Z 15014KT 29/21 A299 RMK A01 T02860213  RH  065%=      5-min Rain = 0
KST2 260104Z 14014KT 29/21 A299 RMK A01 T02860214  RH  065%=      5-min Rain = 0
KST2 260105Z 15014KT 29/21 A299 RMK A01 T02860214  RH  065%=      5-min Rain = 0
KST2 260106Z 15014KT 29/21 A299 RMK A01 T02860214  RH  065%=      5-min Rain = 0
KST2 260107Z 15015KT 29/21 A299 RMK A01 T02850214  RH  065%=      5-min Rain = 0
KST2 260108Z 15015KT 29/21 A299 RMK A01 T02850213  RH  065%=      5-min Rain = 0
KST2 260109Z 14013KT 29/21 A299 RMK A01 T02850213  RH  065%=      5-min Rain = 0
KST2 260110Z 14014KT 29/21 A299 RMK A01 T02850214  RH  065%=      5-min Rain = 0
KST2 260111Z 14013KT 28/21 A299 RMK A01 T02840214  RH  066%=      5-min Rain = 0
KST2 260112Z 14015KT 28/21 A299 RMK A01 T02840213  RH  065%=      5-min Rain = 0
KST2 260113Z 15016KT 28/21 A299 RMK A01 T02840212  RH  065%=      5-min Rain = 0
KST2 260114Z 15017G23KT 28/21 A299 RMK A01 T02840212  RH  065%=      5-min Rain = 0
KST2 260115Z 15016KT 28/21 A299 RMK A01 T02840211  RH  065%=      5-min Rain = 0
KST2 260116Z 14014KT 28/21 A299 RMK A01 T02840213  RH  065%=      5-min Rain = 0
KST2 260117Z 15013KT 28/21 A299 RMK A01 T02830212  RH  066%=      5-min Rain = 0
KST2 260118Z 15015KT 28/21 A299 RMK A01 T02820212  RH  066%=      5-min Rain = 0
KST2 260119Z 15015KT 28/21 A299 RMK A01 T02820212  RH  066%=      5-min Rain = 0
KST2 260120Z 15013KT 28/21 A299 RMK A01 T02820213  RH  066%=      5-min Rain = 0
KST2 260121Z 14015KT 28/21 A299 RMK A01 T02820213  RH  066%=      5-min Rain = 0
KST2 260122Z 14013KT 28/21 A299 RMK A01 T02810212  RH  066%=      5-min Rain = 0
KST2 260123Z 15015KT 28/21 A299 RMK A01 T02810212  RH  066%=      5-min Rain = 0
KST2 260124Z 15016KT 28/21 A299 RMK A01 T02810212  RH  066%=      5-min Rain = 0
KST2 260125Z 15014KT 28/21 A299 RMK A01 T02800212  RH  066%=      5-min Rain = 0
KST2 260126Z 15014KT 28/21 A299 RMK A01 T02800213  RH  067%=      5-min Rain = 0
KST2 260127Z 15014KT 28/21 A2991 RMK A01 T02800212  RH  066%=      5-min Rain = 0
KST2 260128Z 14012KT 28/21 A2991 RMK A01 T02800212  RH  067%=      5-min Rain = 0
KST2 260129Z 15014KT 28/21 A2991 RMK A01 T02790212  RH  067%=      5-min Rain = 0
KST2 260130Z 15014KT 28/21 A299 RMK A01 T02790212  RH  067%=      5-min Rain = 0
KST2 260131Z 14014KT 28/21 A299 RMK A01 T02790212  RH  067%=      5-min Rain = 0
KST2 260132Z 15015KT 28/21 A2991 RMK A01 T02780211  RH  067%=      5-min Rain = 0
KST2 260133Z 14014KT 28/21 A2991 RMK A01 T02790212  RH  067%=      5-min Rain = 0
KST2 260134Z 15014KT 28/21 A2991 RMK A01 T02780211  RH  067%=      5-min Rain = 0
KST2 260135Z 15014KT 28/21 A2991 RMK A01 T02780212  RH  067%=      5-min Rain = 0
KST2 260136Z 14013KT 28/21 A2991 RMK A01 T02780211  RH  067%=      5-min Rain = 0
KST2 260137Z 15012KT 28/21 A2991 RMK A01 T02780212  RH  067%=      5-min Rain = 0
KST2 260138Z 15014KT 28/21 A2991 RMK A01 T02770212  RH  068%=      5-min Rain = 0
KST2 260139Z 15014KT 28/21 A2991 RMK A01 T02770211  RH  067%=      5-min Rain = 0
KST2 260140Z 15015KT 28/21 A2991 RMK A01 T02770211  RH  067%=      5-min Rain = 0
KST2 260141Z 15013KT 28/21 A2991 RMK A01 T02770211  RH  067%=      5-min Rain = 0
KST2 260142Z 15013KT 28/21 A2991 RMK A01 T02770211  RH  067%=      5-min Rain = 0
KST2 260143Z 15014KT 28/21 A2991 RMK A01 T02760212  RH  068%=      5-min Rain = 0
KST2 260144Z 15014KT 28/21 A2991 RMK A01 T02760211  RH  068%=      5-min Rain = 0
KST2 260145Z 15014KT 28/21 A2991 RMK A01 T02750211  RH  068%=      5-min Rain = 0
KST2 260146Z 15015KT 28/21 A2991 RMK A01 T02750211  RH  068%=      5-min Rain = 0
KST2 260147Z 15014KT 28/21 A2991 RMK A01 T02750211  RH  068%=      5-min Rain = 0
KST2 260148Z 15013KT 28/21 A2991 RMK A01 T02750211  RH  068%=      5-min Rain = 0
KST2 260149Z 15014KT 27/21 A2991 RMK A01 T02740211  RH  068%=      5-min Rain = 0
KST2 260150Z 15015KT 27/21 A2991 RMK A01 T02740211  RH  068%=      5-min Rain = 0
KST2 260151Z 15013KT 27/21 A2991 RMK A01 T02740210  RH  068%=      5-min Rain = 0
KST2 260152Z 15014KT 27/21 A2991 RMK A01 T02740211  RH  068%=      5-min Rain = 0
KST2 260153Z 15014KT 27/21 A2991 RMK A01 T02740211  RH  068%=      5-min Rain = 0
KST2 260154Z 15014KT 27/21 A2991 RMK A01 T02740211  RH  068%=      5-min Rain = 0
KST2 260155Z 15014KT 27/21 A2991 RMK A01 T02730211  RH  069%=      5-min Rain = 0
KST2 260156Z 15014KT 27/21 A2991 RMK A01 T02730211  RH  069%=      5-min Rain = 0
KST2 260157Z 15012KT 27/21 A2991 RMK A01 T02730211  RH  069%=      5-min Rain = 0
KST2 260158Z 15013KT 27/21 A2991 RMK A01 T02720210  RH  069%=      5-min Rain = 0
KST2 260159Z 15013KT 27/21 A2991 RMK A01 T02720210  RH  069%=      5-min Rain = 0
KST2 260200Z 15014KT 27/21 A2991 RMK A01 T02720210  RH  069%=      5-min Rain = 0
KST2 260201Z 15013KT 27/21 A2991 RMK A01 T02720210  RH  069%=      5-min Rain = 0
KST2 260202Z 15014KT 27/21 A2991 RMK A01 T02720210  RH  069%=      5-min Rain = 0
KST2 260203Z 15014KT 27/21 A2991 RMK A01 T02710210  RH  069%=      5-min Rain = 0
KST2 260204Z 15013KT 27/21 A2991 RMK A01 T02710209  RH  069%=      5-min Rain = 0
KST2 260205Z 15013KT 27/21 A2991 RMK A01 T02710210  RH  069%=      5-min Rain = 0
KST2 260206Z 15013KT 27/21 A2991 RMK A01 T02710210  RH  069%=      5-min Rain = 0
KST2 260207Z 15012KT 27/21 A2991 RMK A01 T02710210  RH  069%=      5-min Rain = 0
KST2 260208Z 15013KT 27/21 A2991 RMK A01 T02710210  RH  069%=      5-min Rain = 0
KST2 260209Z 15015KT 27/21 A2991 RMK A01 T02710209  RH  069%=      5-min Rain = 0
KST2 260210Z 15014KT 27/21 A2991 RMK A01 T02710209  RH  069%=      5-min Rain = 0
KST2 260211Z 15012KT 27/21 A2991 RMK A01 T02710209  RH  069%=      5-min Rain = 0
KST2 260212Z 15014KT 27/21 A2991 RMK A01 T02700209  RH  069%=      5-min Rain = 0
KST2 260213Z 15014KT 27/21 A2991 RMK A01 T02700209  RH  069%=      5-min Rain = 0
KST2 260214Z 15014KT 27/21 A2991 RMK A01 T02700209  RH  069%=      5-min Rain = 0
KST2 260215Z 15013KT 27/21 A2991 RMK A01 T02700209  RH  069%=      5-min Rain = 0
KST2 260216Z 15013KT 27/21 A2991 RMK A01 T02690209  RH  069%=      5-min Rain = 0
KST2 260217Z 15013KT 27/21 A2991 RMK A01 T02690209  RH  070%=      5-min Rain = 0
KST2 260218Z 15012KT 27/21 A2991 RMK A01 T02690209  RH  070%=      5-min Rain = 0
KST2 260219Z 15013KT 27/21 A2991 RMK A01 T02690209  RH  070%=      5-min Rain = 0
KST2 260220Z 15012KT 27/21 A2991 RMK A01 T02690209  RH  070%=      5-min Rain = 0
KST2 260221Z 15014KT 27/21 A2991 RMK A01 T02680209  RH  070%=      5-min Rain = 0
KST2 260222Z 15013KT 27/21 A2991 RMK A01 T02680209  RH  070%=      5-min Rain = 0
KST2 260223Z 15013KT 27/21 A2991 RMK A01 T02680208  RH  070%=      5-min Rain = 0
KST2 260224Z 15013KT 27/21 A2991 RMK A01 T02680209  RH  070%=      5-min Rain = 0
KST2 260225Z 15013KT 27/21 A2991 RMK A01 T02670209  RH  070%=      5-min Rain = 0
KST2 260226Z 15012KT 27/21 A2991 RMK A01 T02670209  RH  070%=      5-min Rain = 0
KST2 260227Z 15012KT 27/21 A2991 RMK A01 T02670209  RH  070%=      5-min Rain = 0
KST2 260228Z 15013KT 27/21 A2991 RMK A01 T02670209  RH  070%=      5-min Rain = 0
KST2 260229Z 15012KT 27/21 A2991 RMK A01 T02670209  RH  070%=      5-min Rain = 0
KST2 260230Z 15013KT 27/21 A2991 RMK A01 T02660208  RH  071%=      5-min Rain = 0
KST2 260231Z 15013KT 27/21 A2991 RMK A01 T02660209  RH  071%=      5-min Rain = 0
KST2 260232Z 15013KT 27/21 A2991 RMK A01 T02660208  RH  071%=      5-min Rain = 0
KST2 260233Z 15013KT 27/21 A2991 RMK A01 T02660208  RH  071%=      5-min Rain = 0
KST2 260234Z 15013KT 27/21 A2991 RMK A01 T02660208  RH  071%=      5-min Rain = 0
KST2 260235Z 15013KT 27/21 A2991 RMK A01 T02660208  RH  071%=      5-min Rain = 0
KST2 260236Z 15014KT 27/21 A2991 RMK A01 T02650208  RH  071%=      5-min Rain = 0
KST2 260237Z 15013KT 27/21 A2991 RMK A01 T02650207  RH  071%=      5-min Rain = 0
KST2 260238Z 15013KT 27/21 A2991 RMK A01 T02650208  RH  071%=      5-min Rain = 0
KST2 260239Z 15014KT 27/21 A2991 RMK A01 T02650208  RH  071%=      5-min Rain = 0
KST2 260240Z 15015KT 27/21 A2991 RMK A01 T02650208  RH  071%=      5-min Rain = 0
KST2 260241Z 15013G18KT 27/21 A2991 RMK A01 T02660208  RH  070%=      5-min Rain = 0
KST2 260242Z 15012KT 27/21 A2991 RMK A01 T02660208  RH  071%=      5-min Rain = 0
KST2 260243Z 15012KT 27/21 A2991 RMK A01 T02650208  RH  071%=      5-min Rain = 0
KST2 260244Z 15012KT 27/21 A2991 RMK A01 T02650208  RH  071%=      5-min Rain = 0
KST2 260245Z 15013KT 27/21 A2991 RMK A01 T02650208  RH  071%=      5-min Rain = 0
KST2 260246Z 15012KT 27/21 A2991 RMK A01 T02650208  RH  071%=      5-min Rain = 0
KST2 260247Z 15013KT 27/21 A2991 RMK A01 T02650208  RH  071%=      5-min Rain = 0
KST2 260248Z 15012KT 27/21 A2992 RMK A01 T02650208  RH  071%=      5-min Rain = 0
KST2 260249Z 16012KT 26/21 A2992 RMK A01 T02640208  RH  071%=      5-min Rain = 0
KST2 260250Z 15011KT 26/21 A2992 RMK A01 T02640208  RH  071%=      5-min Rain = 0
KST2 260251Z 15013KT 26/21 A2992 RMK A01 T02640208  RH  071%=      5-min Rain = 0
KST2 260252Z 16013KT 26/21 A2992 RMK A01 T02630208  RH  071%=      5-min Rain = 0
KST2 260253Z 15012KT 26/21 A2992 RMK A01 T02630208  RH  071%=      5-min Rain = 0
KST2 260254Z 15012KT 26/21 A2992 RMK A01 T02630208  RH  071%=      5-min Rain = 0
KST2 260255Z 15012KT 26/21 A2992 RMK A01 T02630207  RH  071%=      5-min Rain = 0
KST2 260256Z 15010KT 26/21 A2992 RMK A01 T02630208  RH  072%=      5-min Rain = 0
KST2 260257Z 15011KT 26/21 A2992 RMK A01 T02630208  RH  072%=      5-min Rain = 0
KST2 260258Z 15011KT 26/21 A2992 RMK A01 T02620207  RH  072%=      5-min Rain = 0
KST2 260259Z 15011KT 26/21 A2992 RMK A01 T02620207  RH  072%=      5-min Rain = 0
KST2 260300Z 16013KT 26/21 A2992 RMK A01 T02620207  RH  072%=      5-min Rain = 0
KST2 260301Z 16012KT 26/21 A2992 RMK A01 T02620208  RH  072%=      5-min Rain = 0
KST2 260302Z 15011KT 26/21 A2992 RMK A01 T02620208  RH  072%=      5-min Rain = 0
KST2 260303Z 15011KT 26/21 A2992 RMK A01 T02620208  RH  072%=      5-min Rain = 0
KST2 260304Z 15010KT 26/21 A2991 RMK A01 T02610207  RH  072%=      5-min Rain = 0
KST2 260305Z 15011KT 26/21 A2991 RMK A01 T02610208  RH  072%=      5-min Rain = 0
KST2 260306Z 15011KT 26/21 A2991 RMK A01 T02610207  RH  072%=      5-min Rain = 0
KST2 260307Z 15011KT 26/21 A2991 RMK A01 T02610208  RH  073%=      5-min Rain = 0
KST2 260308Z 15012KT 26/21 A2991 RMK A01 T02600207  RH  072%=      5-min Rain = 0
KST2 260309Z 15010KT 26/21 A2991 RMK A01 T02610207  RH  072%=      5-min Rain = 0
KST2 260310Z 15011KT 26/21 A2991 RMK A01 T02600207  RH  073%=      5-min Rain = 0
KST2 260311Z 16011KT 26/21 A2991 RMK A01 T02600207  RH  073%=      5-min Rain = 0
KST2 260312Z 15012KT 26/21 A2991 RMK A01 T02600207  RH  073%=      5-min Rain = 0
KST2 260313Z 15010KT 26/21 A2991 RMK A01 T02600207  RH  073%=      5-min Rain = 0
KST2 260314Z 15011KT 26/21 A2991 RMK A01 T02600207  RH  073%=      5-min Rain = 0
KST2 260315Z 16011KT 26/21 A2991 RMK A01 T02600207  RH  073%=      5-min Rain = 0
KST2 260316Z 15011KT 26/21 A2991 RMK A01 T02600207  RH  073%=      5-min Rain = 0
KST2 260317Z 15012KT 26/21 A2991 RMK A01 T02600207  RH  073%=      5-min Rain = 0
KST2 260318Z 15011KT 26/21 A2991 RMK A01 T02600207  RH  073%=      5-min Rain = 0
KST2 260319Z 15010KT 26/21 A2991 RMK A01 T02590207  RH  073%=      5-min Rain = 0
KST2 260320Z 15011KT 26/21 A2991 RMK A01 T02590207  RH  073%=      5-min Rain = 0
KST2 260321Z 15012KT 26/21 A2991 RMK A01 T02590207  RH  073%=      5-min Rain = 0
KST2 260322Z 16012KT 26/21 A2991 RMK A01 T02590206  RH  073%=      5-min Rain = 0
KST2 260323Z 15011KT 26/21 A2991 RMK A01 T02590207  RH  073%=      5-min Rain = 0
KST2 260324Z 15012KT 26/21 A299 RMK A01 T02580206  RH  073%=      5-min Rain = 0
KST2 260325Z 15014KT 26/21 A299 RMK A01 T02580206  RH  073%=      5-min Rain = 0
KST2 260326Z 15013KT 26/21 A299 RMK A01 T02590206  RH  073%=      5-min Rain = 0
KST2 260327Z 15012KT 26/21 A299 RMK A01 T02590206  RH  073%=      5-min Rain = 0
KST2 260328Z 15013KT 26/21 A299 RMK A01 T02590206  RH  073%=      5-min Rain = 0
KST2 260329Z 15013KT 26/21 A2991 RMK A01 T02590206  RH  072%=      5-min Rain = 0
KST2 260330Z 15011KT 26/21 A2991 RMK A01 T02590206  RH  072%=      5-min Rain = 0
KST2 260331Z 15013KT 26/21 A299 RMK A01 T02590206  RH  073%=      5-min Rain = 0
KST2 260332Z 15013KT 26/21 A299 RMK A01 T02590206  RH  073%=      5-min Rain = 0
KST2 260333Z 15015KT 26/21 A299 RMK A01 T02590206  RH  072%=      5-min Rain = 0
KST2 260334Z 15013KT 26/21 A299 RMK A01 T02590206  RH  072%=      5-min Rain = 0
KST2 260335Z 15016KT 26/21 A299 RMK A01 T02600206  RH  072%=      5-min Rain = 0
KST2 260336Z 15016KT 26/21 A299 RMK A01 T02600206  RH  072%=      5-min Rain = 0
KST2 260337Z 15015KT 26/21 A299 RMK A01 T02600206  RH  072%=      5-min Rain = 0
KST2 260338Z 15016KT 26/21 A299 RMK A01 T02600206  RH  072%=      5-min Rain = 0
KST2 260339Z 15016KT 26/21 A299 RMK A01 T02600206  RH  072%=      5-min Rain = 0
KST2 260340Z 15015KT 26/21 A299 RMK A01 T02600206  RH  072%=      5-min Rain = 0
KST2 260341Z 15015KT 26/21 A299 RMK A01 T02600206  RH  072%=      5-min Rain = 0
KST2 260342Z 15015KT 26/21 A299 RMK A01 T02600206  RH  072%=      5-min Rain = 0
KST2 260343Z 15016KT 26/21 A299 RMK A01 T02590207  RH  073%=      5-min Rain = 0
KST2 260344Z 15015KT 26/21 A299 RMK A01 T02590206  RH  073%=      5-min Rain = 0
KST2 260345Z 15017KT 26/21 A299 RMK A01 T02590206  RH  073%=      5-min Rain = 0
KST2 260346Z 15016KT 26/21 A299 RMK A01 T02590206  RH  073%=      5-min Rain = 0
KST2 260347Z 15016KT 26/21 A299 RMK A01 T02590206  RH  073%=      5-min Rain = 0
KST2 260348Z 15016KT 26/21 A299 RMK A01 T02590206  RH  073%=      5-min Rain = 0
KST2 260349Z 15016KT 26/21 A299 RMK A01 T02600207  RH  073%=      5-min Rain = 0
KST2 260350Z 15016KT 26/21 A299 RMK A01 T02600207  RH  073%=      5-min Rain = 0
KST2 260351Z 15017G23KT 26/21 A299 RMK A01 T02590207  RH  073%=      5-min Rain = 0
KST2 260352Z 15016KT 26/21 A299 RMK A01 T02590206  RH  073%=      5-min Rain = 0
KST2 260353Z 15016KT 26/21 A299 RMK A01 T02590206  RH  073%=      5-min Rain = 0
KST2 260354Z 15016KT 26/21 A299 RMK A01 T02590206  RH  073%=      5-min Rain = 0
KST2 260355Z 15015KT 26/21 A299 RMK A01 T02590206  RH  073%=      5-min Rain = 0
KST2 260356Z 15015KT 26/21 A299 RMK A01 T02590207  RH  073%=      5-min Rain = 0
KST2 260357Z 16015KT 26/21 A299 RMK A01 T02580207  RH  073%=      5-min Rain = 0
KST2 260358Z 16016KT 26/21 A299 RMK A01 T02580206  RH  073%=      5-min Rain = 0
KST2 260359Z 16016KT 26/21 A299 RMK A01 T02580206  RH  073%=      5-min Rain = 0
KST2 260400Z 16015G20KT 26/21 A299 RMK A01 T02580206  RH  073%=      5-min Rain = 0
KST2 260401Z 16017KT 26/21 A299 RMK A01 T02580206  RH  073%=      5-min Rain = 0
KST2 260402Z 16016KT 26/21 A299 RMK A01 T02580206  RH  073%=      5-min Rain = 0
KST2 260403Z 15016KT 26/21 A299 RMK A01 T02580206  RH  073%=      5-min Rain = 0
KST2 260404Z 15017G22KT 26/21 A299 RMK A01 T02580206  RH  073%=      5-min Rain = 0
KST2 260405Z 15018KT 26/21 A299 RMK A01 T02590206  RH  072%=      5-min Rain = 0
KST2 260406Z 15016KT 26/21 A299 RMK A01 T02590205  RH  072%=      5-min Rain = 0
KST2 260407Z 15016KT 26/21 A299 RMK A01 T02590205  RH  072%=      5-min Rain = 0
KST2 260408Z 15017KT 26/21 A299 RMK A01 T02590206  RH  072%=      5-min Rain = 0
KST2 260409Z 15015KT 26/21 A299 RMK A01 T02590206  RH  073%=      5-min Rain = 0
KST2 260410Z 15014G20KT 26/21 A2991 RMK A01 T02580206  RH  073%=      5-min Rain = 0
KST2 260411Z 15017KT 26/21 A299 RMK A01 T02580205  RH  073%=      5-min Rain = 0
KST2 260412Z 15017KT 26/21 A299 RMK A01 T02580205  RH  073%=      5-min Rain = 0
KST2 260413Z 15017KT 26/21 A299 RMK A01 T02580205  RH  073%=      5-min Rain = 0
KST2 260414Z 15016G21KT 26/21 A299 RMK A01 T02580205  RH  072%=      5-min Rain = 0
KST2 260415Z 15019KT 26/21 A299 RMK A01 T02580205  RH  072%=      5-min Rain = 0
KST2 260416Z 15019KT 26/20 A299 RMK A01 T02590204  RH  072%=      5-min Rain = 0
KST2 260417Z 15020KT 26/20 A299 RMK A01 T02590204  RH  072%=      5-min Rain = 0
KST2 260418Z 15018KT 26/20 A2991 RMK A01 T02600204  RH  072%=      5-min Rain = 0
KST2 260419Z 16018G23KT 26/21 A2991 RMK A01 T02600205  RH  072%=      5-min Rain = 0
KST2 260420Z 16016KT 26/21 A2991 RMK A01 T02590205  RH  072%=      5-min Rain = 0
KST2 260421Z 15017G23KT 26/21 A2991 RMK A01 T02590205  RH  072%=      5-min Rain = 0
KST2 260422Z 15019KT 26/21 A2991 RMK A01 T02590205  RH  072%=      5-min Rain = 0
KST2 260423Z 16017KT 26/20 A2991 RMK A01 T02590204  RH  072%=      5-min Rain = 0
KST2 260424Z 15018KT 26/20 A2991 RMK A01 T02590204  RH  072%=      5-min Rain = 0
KST2 260425Z 16016KT 26/20 A2991 RMK A01 T02590204  RH  072%=      5-min Rain = 0
KST2 260426Z 16016KT 26/20 A2991 RMK A01 T02590204  RH  072%=      5-min Rain = 0
KST2 260427Z 16018KT 26/21 A2991 RMK A01 T02590205  RH  072%=      5-min Rain = 0
KST2 260428Z 16017KT 26/21 A2991 RMK A01 T02580205  RH  072%=      5-min Rain = 0
KST2 260429Z 15016KT 26/21 A2992 RMK A01 T02580205  RH  072%=      5-min Rain = 0
KST2 260430Z 15014KT 26/21 A2992 RMK A01 T02580205  RH  072%=      5-min Rain = 0
KST2 260431Z 15016KT 26/21 A2992 RMK A01 T02580205  RH  072%=      5-min Rain = 0
KST2 260432Z 16014KT 26/21 A2992 RMK A01 T02580205  RH  073%=      5-min Rain = 0
KST2 260433Z 16014KT 26/21 A2992 RMK A01 T02580205  RH  073%=      5-min Rain = 0
KST2 260434Z 16014KT 26/21 A2992 RMK A01 T02570205  RH  073%=      5-min Rain = 0
KST2 260435Z 16016KT 26/21 A2992 RMK A01 T02570205  RH  073%=      5-min Rain = 0
KST2 260436Z 15017KT 26/21 A2992 RMK A01 T02570205  RH  073%=      5-min Rain = 0
KST2 260437Z 16017KT 26/20 A2992 RMK A01 T02570204  RH  073%=      5-min Rain = 0
KST2 260438Z 16015KT 26/21 A2992 RMK A01 T02580205  RH  072%=      5-min Rain = 0
KST2 260439Z 16016KT 26/20 A2992 RMK A01 T02580204  RH  072%=      5-min Rain = 0
KST2 260440Z 15019KT 26/20 A2992 RMK A01 T02590204  RH  072%=      5-min Rain = 0
KST2 260441Z 15014KT 26/20 A2993 RMK A01 T02590204  RH  072%=      5-min Rain = 0
KST2 260442Z 15016KT 26/20 A2992 RMK A01 T02590204  RH  072%=      5-min Rain = 0
KST2 260443Z 16016KT 26/21 A2993 RMK A01 T02590205  RH  072%=      5-min Rain = 0
KST2 260444Z 15016KT 26/20 A2993 RMK A01 T02590204  RH  072%=      5-min Rain = 0
KST2 260445Z 15014KT 26/20 A2993 RMK A01 T02590204  RH  072%=      5-min Rain = 0
KST2 260446Z 16018KT 26/20 A2993 RMK A01 T02590204  RH  072%=      5-min Rain = 0
KST2 260447Z 16018KT 26/20 A2993 RMK A01 T02590204  RH  072%=      5-min Rain = 0
KST2 260448Z 16014KT 26/20 A2993 RMK A01 T02590204  RH  072%=      5-min Rain = 0
KST2 260449Z 15018KT 26/20 A2992 RMK A01 T02590204  RH  072%=      5-min Rain = 0
KST2 260450Z 16017KT 26/20 A2993 RMK A01 T02590204  RH  072%=      5-min Rain = 0
KST2 260451Z 16020KT 26/20 A2992 RMK A01 T02590204  RH  071%=      5-min Rain = 0
KST2 260452Z 15017KT 26/20 A2993 RMK A01 T02600204  RH  071%=      5-min Rain = 0
KST2 260453Z 15015KT 26/20 A2993 RMK A01 T02610204  RH  071%=      5-min Rain = 0
KST2 260454Z 15015KT 26/20 A2993 RMK A01 T02600204  RH  071%=      5-min Rain = 0
KST2 260455Z 15015KT 26/20 A2993 RMK A01 T02600204  RH  071%=      5-min Rain = 0
KST2 260456Z 15016KT 26/20 A2993 RMK A01 T02590204  RH  071%=      5-min Rain = 0
KST2 260457Z 15017G22KT 26/20 A2992 RMK A01 T02590204  RH  071%=      5-min Rain = 0
KST2 260458Z 15018KT 26/20 A2992 RMK A01 T02590203  RH  071%=      5-min Rain = 0
KST2 260459Z 15015KT 26/20 A2992 RMK A01 T02600204  RH  071%=      5-min Rain = 0

Page generated in 0.0336 seconds.